[[{"header":{"parameterUnit":"m.s-1","parameterCategory":1,"la1":30.6,"la2":29.2853,"lo1":-89.7004,"lo2":-87.6739,"dx":0.0162,"dy":0.0183,"nx":112,"ny":82,"refTime":"2022-11-14T18:00:00:Z","depth":0,"parameterNumber":2,"parameterNumberName":"U-component_of_WINDS"},"data":[0.0,0.0,0.0,0.0,0.0,0.0,0.0,0.0,0.0,0.0,0.0,0.0,0.0,0.0,0.0,0.0,0.0,0.0,0.0,0.0,0.0,0.0,0.0,0.0,0.0,0.0,0.0,0.0,0.0,0.0,0.0,0.0,0.0,0.0,0.0,0.0,0.0,0.0,0.0,0.0,0.0,0.0,0.0,0.0,0.0,0.0,0.0,0.0,0.0,0.0,0.0,0.0,0.0,0.0,0.0,0.0,0.0,0.0,0.0,0.0,0.0,0.0,0.0,0.0,0.0,0.0,0.0,0.0,0.0,0.0,0.0,0.0,0.0,0.0,0.0,0.0,0.0,0.0,0.0,0.0,0.0,0.0,0.0,0.0,0.0,0.0,0.0,0.0,0.0,0.0,0.0,5.8473,5.9281,5.9704,5.9704,5.9088,5.7165,5.3626,0.0,0.0,0.0,0.0,0.0,0.0,0.0,0.0,0.0,0.0,0.0,0.0,0.0,0.0,0.0,0.0,0.0,0.0,0.0,0.0,0.0,0.0,0.0,0.0,0.0,0.0,0.0,0.0,0.0,0.0,0.0,0.0,0.0,0.0,0.0,0.0,0.0,0.0,0.0,0.0,0.0,0.0,0.0,0.0,0.0,0.0,0.0,0.0,0.0,0.0,0.0,0.0,0.0,0.0,0.0,0.0,0.0,0.0,0.0,0.0,0.0,0.0,0.0,0.0,0.0,0.0,0.0,0.0,0.0,0.0,0.0,0.0,0.0,0.0,0.0,0.0,0.0,0.0,0.0,0.0,0.0,0.0,0.0,0.0,0.0,0.0,0.0,0.0,0.0,0.0,0.0,0.0,0.0,0.0,0.0,0.0,0.0,0.0,0.0,0.0,0.0,0.0,0.0,0.0,5.6896,6.0089,6.0512,6.0589,6.0589,6.0473,5.8665,5.4549,0.0,0.0,0.0,0.0,0.0,0.0,0.0,0.0,0.0,0.0,0.0,0.0,0.0,0.0,0.0,0.0,0.0,0.0,0.0,0.0,0.0,0.0,0.0,0.0,0.0,0.0,0.0,0.0,0.0,0.0,0.0,0.0,0.0,0.0,0.0,0.0,0.0,0.0,0.0,0.0,0.0,0.0,0.0,0.0,0.0,0.0,0.0,0.0,0.0,0.0,0.0,0.0,0.0,0.0,0.0,0.0,0.0,0.0,0.0,0.0,0.0,0.0,0.0,0.0,0.0,0.0,0.0,0.0,0.0,0.0,0.0,0.0,0.0,0.0,0.0,0.0,0.0,0.0,0.0,0.0,0.0,0.0,0.0,0.0,0.0,0.0,0.0,0.0,0.0,0.0,0.0,0.0,0.0,0.0,0.0,0.0,0.0,0.0,0.0,0.0,0.0,0.0,0.0,5.6703,5.855,6.0589,6.0781,6.0781,6.0781,6.0781,5.9396,5.6049,5.5472,0.0,0.0,0.0,0.0,0.0,0.0,0.0,0.0,0.0,0.0,0.0,0.0,0.0,0.0,0.0,0.0,0.0,0.0,0.0,0.0,0.0,0.0,0.0,0.0,0.0,0.0,0.0,0.0,0.0,0.0,0.0,0.0,0.0,0.0,0.0,0.0,0.0,0.0,0.0,0.0,0.0,0.0,0.0,0.0,0.0,0.0,0.0,0.0,0.0,0.0,0.0,0.0,0.0,0.0,0.0,0.0,0.0,0.0,0.0,0.0,0.0,0.0,0.0,0.0,0.0,0.0,0.0,0.0,0.0,0.0,0.0,0.0,0.0,0.0,0.0,0.0,0.0,0.0,0.0,0.0,0.0,0.0,0.0,0.0,0.0,0.0,0.0,0.0,0.0,0.0,0.0,0.0,0.0,0.0,0.0,0.0,0.0,0.0,0.0,0.0,0.0,0.0,5.8819,6.0435,6.1281,6.1396,6.132,6.1127,6.1089,5.9935,5.7165,5.7011,0.0,0.0,0.0,0.0,0.0,0.0,0.0,0.0,0.0,0.0,0.0,0.0,0.0,0.0,0.0,0.0,0.0,0.0,0.0,0.0,0.0,0.0,0.0,0.0,0.0,0.0,0.0,0.0,0.0,0.0,0.0,0.0,0.0,0.0,0.0,0.0,0.0,0.0,0.0,0.0,0.0,0.0,0.0,0.0,0.0,0.0,0.0,0.0,0.0,0.0,0.0,0.0,0.0,0.0,0.0,0.0,0.0,0.0,0.0,0.0,0.0,0.0,0.0,0.0,0.0,0.0,0.0,0.0,0.0,0.0,0.0,0.0,0.0,0.0,0.0,0.0,0.0,0.0,0.0,0.0,0.0,0.0,0.0,0.0,0.0,0.0,0.0,0.0,0.0,0.0,0.0,0.0,0.0,0.0,0.0,0.0,0.0,0.0,0.0,0.0,0.0,0.0,5.9858,6.2243,6.3051,6.3128,6.282,6.205,6.2012,6.0589,5.7203,5.7011,0.0,0.0,0.0,0.0,0.0,0.0,0.0,0.0,0.0,0.0,0.0,0.0,0.0,0.0,0.0,0.0,0.0,0.0,0.0,0.0,0.0,0.0,0.0,0.0,0.0,0.0,0.0,0.0,0.0,0.0,0.0,0.0,0.0,0.0,0.0,0.0,0.0,0.0,0.0,0.0,0.0,0.0,0.0,0.0,0.0,0.0,0.0,0.0,0.0,0.0,0.0,0.0,0.0,0.0,0.0,0.0,0.0,0.0,0.0,0.0,0.0,0.0,0.0,0.0,0.0,0.0,0.0,0.0,0.0,0.0,0.0,0.0,0.0,0.0,0.0,0.0,0.0,0.0,0.0,0.0,0.0,0.0,0.0,0.0,0.0,0.0,0.0,0.0,0.0,0.0,0.0,0.0,0.0,0.0,0.0,0.0,0.0,0.0,0.0,0.0,0.0,0.0,5.9511,6.182,0.0,6.332,6.3166,6.2858,6.2858,6.1627,5.8742,0.0,0.0,0.0,0.0,0.0,0.0,0.0,0.0,0.0,0.0,0.0,0.0,0.0,0.0,0.0,0.0,0.0,0.0,0.0,0.0,0.0,0.0,0.0,0.0,0.0,0.0,0.0,0.0,0.0,0.0,0.0,0.0,0.0,0.0,0.0,0.0,0.0,0.0,0.0,0.0,0.0,0.0,0.0,0.0,0.0,0.0,0.0,0.0,0.0,0.0,0.0,0.0,0.0,0.0,0.0,0.0,0.0,0.0,0.0,0.0,0.0,0.0,0.0,0.0,0.0,0.0,0.0,0.0,0.0,0.0,0.0,0.0,0.0,0.0,0.0,0.0,0.0,0.0,0.0,0.0,0.0,0.0,0.0,0.0,0.0,0.0,0.0,0.0,0.0,0.0,0.0,0.0,0.0,0.0,0.0,0.0,0.0,0.0,0.0,0.0,0.0,0.0,5.7665,6.0242,6.2551,0.0,6.4128,6.4012,6.3743,6.3705,6.2512,5.9665,0.0,0.0,0.0,0.0,0.0,0.0,0.0,0.0,0.0,0.0,0.0,0.0,0.0,0.0,0.0,0.0,0.0,0.0,0.0,0.0,0.0,0.0,0.0,0.0,0.0,0.0,0.0,0.0,0.0,0.0,0.0,0.0,0.0,0.0,0.0,0.0,0.0,0.0,0.0,0.0,0.0,0.0,0.0,0.0,0.0,0.0,0.0,0.0,0.0,0.0,0.0,0.0,0.0,0.0,0.0,0.0,0.0,0.0,0.0,0.0,0.0,0.0,0.0,0.0,0.0,0.0,0.0,0.0,0.0,0.0,0.0,0.0,0.0,0.0,0.0,0.0,0.0,0.0,0.0,0.0,0.0,0.0,0.0,0.0,0.0,0.0,0.0,0.0,0.0,0.0,0.0,0.0,0.0,0.0,0.0,0.0,0.0,0.0,0.0,0.0,0.0,0.0,5.9396,6.2474,6.4936,6.582,6.5897,6.5551,6.4705,6.4628,6.3166,0.0,0.0,0.0,0.0,0.0,0.0,0.0,0.0,0.0,0.0,0.0,0.0,0.0,0.0,0.0,0.0,0.0,0.0,0.0,0.0,0.0,0.0,0.0,0.0,0.0,0.0,0.0,0.0,0.0,0.0,0.0,0.0,0.0,0.0,0.0,0.0,0.0,0.0,0.0,0.0,0.0,0.0,0.0,0.0,0.0,0.0,0.0,0.0,0.0,0.0,0.0,0.0,0.0,0.0,0.0,0.0,0.0,0.0,0.0,0.0,0.0,0.0,0.0,0.0,0.0,0.0,0.0,0.0,0.0,0.0,0.0,0.0,0.0,0.0,0.0,0.0,0.0,0.0,0.0,0.0,0.0,0.0,0.0,0.0,0.0,0.0,0.0,0.0,0.0,0.0,0.0,0.0,0.0,0.0,0.0,0.0,0.0,0.0,0.0,0.0,0.0,0.0,0.0,5.9473,6.2474,6.4936,6.582,6.5897,6.5782,6.5551,6.5513,6.4051,6.0627,0.0,0.0,0.0,0.0,0.0,0.0,0.0,0.0,0.0,0.0,0.0,0.0,0.0,0.0,0.0,0.0,0.0,0.0,0.0,0.0,0.0,0.0,0.0,0.0,0.0,0.0,0.0,0.0,0.0,0.0,0.0,0.0,0.0,0.0,0.0,0.0,0.0,0.0,0.0,0.0,0.0,0.0,0.0,0.0,0.0,0.0,0.0,0.0,0.0,0.0,0.0,0.0,0.0,0.0,0.0,0.0,0.0,0.0,0.0,0.0,0.0,0.0,0.0,0.0,0.0,0.0,0.0,0.0,0.0,0.0,0.0,0.0,0.0,0.0,0.0,0.0,0.0,0.0,0.0,0.0,0.0,0.0,0.0,0.0,0.0,0.0,0.0,0.0,0.0,0.0,0.0,0.0,0.0,0.0,0.0,0.0,0.0,0.0,0.0,0.0,0.0,0.0,6.0012,6.3281,6.5782,6.632,6.6705,6.6898,6.6898,6.6898,6.559,6.2512,0.0,0.0,0.0,0.0,0.0,0.0,0.0,0.0,0.0,0.0,0.0,0.0,0.0,0.0,0.0,0.0,0.0,0.0,0.0,0.0,0.0,0.0,0.0,0.0,0.0,0.0,0.0,0.0,0.0,0.0,0.0,0.0,0.0,0.0,0.0,0.0,0.0,0.0,0.0,0.0,0.0,0.0,0.0,0.0,0.0,0.0,0.0,0.0,0.0,0.0,0.0,0.0,0.0,0.0,0.0,0.0,0.0,0.0,0.0,0.0,0.0,0.0,0.0,0.0,0.0,0.0,0.0,0.0,0.0,0.0,0.0,0.0,0.0,0.0,0.0,0.0,0.0,0.0,0.0,0.0,0.0,0.0,0.0,0.0,0.0,0.0,0.0,0.0,0.0,0.0,0.0,0.0,0.0,0.0,0.0,0.0,0.0,0.0,0.0,0.0,0.0,0.0,6.0935,6.4589,6.7205,6.7205,6.7936,6.8398,6.8398,6.8398,6.7359,6.4897,0.0,0.0,0.0,0.0,0.0,0.0,0.0,0.0,0.0,0.0,0.0,0.0,0.0,0.0,0.0,0.0,0.0,0.0,0.0,0.0,0.0,0.0,0.0,0.0,0.0,0.0,0.0,0.0,0.0,0.0,0.0,0.0,0.0,0.0,0.0,0.0,0.0,0.0,0.0,0.0,0.0,0.0,0.0,0.0,0.0,0.0,0.0,0.0,0.0,0.0,0.0,0.0,0.0,0.0,0.0,0.0,0.0,0.0,0.0,0.0,5.3895,0.0,0.0,0.0,0.0,0.0,0.0,0.0,0.0,0.0,0.0,0.0,0.0,0.0,0.0,0.0,0.0,0.0,0.0,0.0,0.0,0.0,0.0,0.0,0.0,0.0,0.0,0.0,0.0,0.0,0.0,0.0,0.0,0.0,0.0,0.0,0.0,0.0,0.0,0.0,0.0,0.0,6.182,6.5513,6.8129,6.8129,6.8282,6.8398,6.8398,6.8398,6.7628,6.5743,0.0,0.0,0.0,0.0,0.0,0.0,0.0,0.0,0.0,0.0,0.0,0.0,0.0,0.0,0.0,0.0,0.0,0.0,0.0,0.0,0.0,0.0,0.0,0.0,0.0,0.0,0.0,0.0,0.0,0.0,0.0,0.0,0.0,0.0,0.0,0.0,0.0,0.0,0.0,0.0,0.0,0.0,0.0,0.0,0.0,0.0,0.0,0.0,0.0,0.0,0.0,0.0,0.0,0.0,0.0,0.0,0.0,0.0,0.0,0.0,0.0,5.4895,0.0,0.0,0.0,0.0,0.0,0.0,0.0,0.0,0.0,0.0,0.0,0.0,0.0,0.0,0.0,0.0,0.0,0.0,0.0,0.0,0.0,0.0,0.0,0.0,0.0,0.0,0.0,0.0,0.0,0.0,0.0,0.0,0.0,0.0,0.0,0.0,0.0,0.0,0.0,0.0,6.2627,6.6397,6.9013,6.9013,6.936,6.959,6.959,6.959,6.9052,6.7821,6.6936,0.0,0.0,0.0,0.0,0.0,0.0,0.0,0.0,0.0,0.0,0.0,0.0,0.0,0.0,0.0,0.0,0.0,0.0,0.0,0.0,0.0,0.0,0.0,0.0,0.0,0.0,0.0,0.0,0.0,0.0,0.0,0.0,0.0,0.0,0.0,0.0,0.0,0.0,0.0,0.0,0.0,0.0,0.0,0.0,0.0,0.0,0.0,0.0,0.0,0.0,0.0,0.0,0.0,0.0,5.8781,5.8088,5.8088,5.8858,6.005,5.7934,5.728,5.7627,0.0,0.0,0.0,0.0,0.0,0.0,0.0,0.0,0.0,0.0,0.0,0.0,0.0,0.0,0.0,0.0,0.0,0.0,0.0,0.0,0.0,0.0,0.0,0.0,0.0,6.2012,6.2358,0.0,0.0,0.0,0.0,0.0,0.0,0.0,0.0,0.0,0.0,0.0,0.0,6.3858,6.7436,6.9898,6.9898,7.0514,7.0898,7.0898,7.0898,7.0629,6.9937,6.8552,6.6936,0.0,0.0,0.0,0.0,0.0,0.0,0.0,0.0,0.0,0.0,0.0,0.0,0.0,0.0,0.0,0.0,0.0,0.0,0.0,0.0,0.0,0.0,0.0,0.0,0.0,0.0,0.0,0.0,0.0,0.0,0.0,0.0,5.1471,5.1702,0.0,0.0,0.0,0.0,0.0,0.0,0.0,0.0,0.0,0.0,0.0,0.0,0.0,0.0,5.5703,5.8011,5.9127,5.9011,6.1473,6.2589,6.2474,6.2474,6.2589,6.2781,6.2435,0.0,6.0358,6.0973,0.0,0.0,0.0,0.0,0.0,0.0,0.0,0.0,0.0,0.0,0.0,0.0,0.0,0.0,0.0,0.0,0.0,0.0,0.0,0.0,0.0,0.0,6.3166,6.3935,6.4205,6.4436,0.0,6.2897,6.0742,6.0512,0.0,0.0,0.0,0.0,0.0,0.0,0.0,0.0,6.6397,6.9013,7.0744,7.0744,7.0821,7.0898,7.0898,7.0898,7.086,7.0744,7.0514,6.9321,6.6859,6.5897,0.0,0.0,0.0,0.0,0.0,0.0,0.0,0.0,0.0,0.0,0.0,0.0,0.0,0.0,0.0,0.0,0.0,0.0,0.0,0.0,0.0,0.0,0.0,0.0,0.0,0.0,0.0,0.0,0.0,5.0933,5.2087,5.2587,5.2202,5.1895,0.0,0.0,0.0,0.0,0.0,0.0,0.0,0.0,0.0,5.8511,5.855,5.9011,5.9973,6.1089,6.1627,6.1666,6.2781,6.332,6.332,6.332,6.332,6.332,6.382,6.3628,6.2935,6.282,6.2551,6.2166,0.0,0.0,0.0,0.0,0.0,6.1089,6.1935,0.0,0.0,0.0,0.0,0.0,0.0,0.0,0.0,0.0,0.0,0.0,0.0,0.0,0.0,6.6551,6.6744,6.6859,6.7205,6.6128,6.4666,0.0,6.2935,6.2358,6.055,0.0,0.0,0.0,0.0,0.0,6.7667,6.9629,7.0898,7.0898,7.0898,7.0898,7.0898,7.0898,7.0898,7.0898,7.0898,7.0398,6.9283,6.7513,6.5513,0.0,0.0,0.0,0.0,0.0,0.0,0.0,0.0,0.0,0.0,0.0,0.0,0.0,0.0,0.0,0.0,0.0,0.0,0.0,0.0,0.0,0.0,0.0,0.0,0.0,0.0,0.0,0.0,5.2087,5.2972,5.3164,5.3203,5.3049,0.0,0.0,0.0,0.0,0.0,0.0,5.7896,5.7973,5.905,6.1358,6.1435,6.205,6.3281,6.3512,6.3628,6.3628,6.3858,6.4089,6.4282,6.4282,6.4397,6.4628,6.5282,6.559,6.5474,6.4397,6.3974,6.3935,6.3743,6.3628,6.3628,6.3628,6.3243,6.2897,6.3935,6.3897,6.3397,6.3628,0.0,6.2974,6.2551,0.0,0.0,0.0,0.0,6.4628,6.6128,0.0,6.759,6.8244,6.8398,6.8398,6.8398,6.8398,6.7859,0.0,6.5628,6.4974,6.2935,0.0,0.0,0.0,0.0,6.7898,6.8975,7.0167,7.0937,7.0975,7.0975,7.1014,7.1052,7.1052,7.1014,7.0975,7.0975,7.0937,7.0898,6.909,6.7782,6.709,0.0,0.0,0.0,0.0,0.0,0.0,0.0,0.0,0.0,0.0,0.0,0.0,0.0,0.0,0.0,0.0,0.0,0.0,0.0,0.0,0.0,0.0,0.0,0.0,0.0,0.0,0.0,0.0,0.0,5.3395,5.528,0.0,0.0,0.0,0.0,5.6742,5.6896,5.8011,6.0473,6.0589,6.1396,6.3128,6.3166,6.3205,6.332,6.4128,6.4551,6.4551,6.5359,6.6167,6.6898,6.6898,6.7359,6.8167,6.8205,6.8205,6.809,6.6436,6.5782,6.5705,6.4859,6.4551,6.4551,6.4551,6.4512,6.4705,6.632,6.6859,6.6974,6.7821,6.7013,6.582,6.6551,6.5667,0.0,0.0,6.6859,6.7128,6.8052,6.8321,6.8359,6.8398,6.8398,6.8398,6.8398,6.8398,6.8436,0.0,6.8462,6.827,6.7487,0.0,6.773,6.8462,6.8565,6.9194,7.0821,7.0975,7.0975,7.1168,7.1168,7.1245,7.1464,7.1464,7.1387,7.1206,7.1168,7.1091,7.0898,7.0783,6.9552,6.7128,6.6974,0.0,0.0,0.0,0.0,0.0,0.0,0.0,0.0,0.0,0.0,0.0,0.0,0.0,0.0,0.0,0.0,0.0,0.0,0.0,0.0,0.0,0.0,0.0,0.0,0.0,0.0,0.0,0.0,5.5703,5.6934,0.0,5.7011,5.8165,5.9088,5.9396,6.0435,6.1704,6.3166,6.3243,6.3782,6.4936,6.5474,6.5743,6.5743,6.6628,6.7051,6.7051,6.7359,6.7667,6.7936,6.7936,6.8129,6.8398,6.8398,6.8398,6.8359,6.7782,6.7513,6.7475,6.7167,6.7051,6.7051,6.7051,6.7051,6.7128,6.7744,6.7936,6.7975,6.8321,6.8013,6.7552,6.7859,6.7513,6.7167,6.7782,6.8359,6.8821,6.9167,6.9706,7.0206,7.0206,7.0283,7.0398,7.0398,7.0398,7.0464,7.0618,7.0002,6.9244,6.8588,6.9398,6.986,6.9023,6.9822,7.0718,7.1325,7.1321,7.1283,7.1387,7.1407,7.1415,7.1493,7.1493,7.1493,7.1415,7.1386,7.1283,7.1091,7.1091,7.0591,6.9552,6.9552,6.7321,0.0,0.0,0.0,0.0,0.0,0.0,0.0,0.0,0.0,0.0,0.0,0.0,0.0,0.0,0.0,0.0,0.0,0.0,0.0,0.0,0.0,0.0,0.0,0.0,0.0,0.0,5.7319,5.7011,5.8511,5.9473,5.9165,6.0666,6.1781,6.205,6.3128,6.4243,6.5397,6.5436,6.5859,6.6705,6.7244,6.7552,6.7552,6.8129,6.8398,6.8398,6.8398,6.8552,6.8859,6.8859,6.9013,6.9244,6.9244,6.9244,6.9244,6.9244,6.9244,6.9206,6.8629,6.8398,6.8398,6.8398,6.8398,6.8436,6.8744,6.9013,6.9244,6.9244,6.9244,6.9244,6.9244,6.9244,6.9244,6.9321,6.9706,7.0129,7.0283,7.0744,7.1248,7.1294,7.1402,7.1518,7.1518,7.1518,7.1525,7.1672,7.1041,7.039,7.0013,7.0892,7.1174,6.9748,7.0676,7.1455,7.1197,7.1355,7.1502,7.1568,7.1562,7.1591,7.1663,7.1165,7.1048,7.1555,7.1025,7.0915,7.1286,7.0684,7.031,7.0129,7.009,6.8244,6.4589,0.0,0.0,0.0,0.0,0.0,0.0,0.0,0.0,0.0,0.0,0.0,0.0,0.0,0.0,0.0,0.0,0.0,0.0,0.0,0.0,0.0,0.0,0.0,5.6011,5.7319,5.8127,5.728,6.0127,6.1858,6.1012,6.2397,6.3743,6.4628,6.4666,6.5397,6.7051,6.7128,6.7513,6.8359,6.8436,6.8436,6.8436,6.8475,6.8475,6.8475,6.8475,6.8936,6.9744,6.9744,7.0167,7.0898,7.0898,7.0898,7.0898,7.0898,7.0898,7.0744,6.9129,6.8475,6.8475,6.8475,6.8475,6.859,6.9475,7.0244,7.0898,7.0898,7.0898,7.0937,7.0937,7.0975,7.1014,7.1206,7.1118,7.1041,7.1426,7.1387,7.1274,7.1442,7.1523,7.1537,7.1537,7.1523,7.1559,7.1673,7.1695,7.176,7.1978,7.1992,7.1719,7.0859,7.1328,0.0,7.0703,7.1199,7.162,7.1711,7.171,7.1804,7.1989,7.0508,7.0195,7.1719,7.0286,7.0006,7.1498,6.9821,6.8835,6.877,6.8513,6.7936,6.709,0.0,0.0,0.0,0.0,0.0,0.0,0.0,0.0,0.0,0.0,0.0,0.0,0.0,0.0,0.0,0.0,0.0,0.0,0.0,0.0,0.0,0.0,5.8819,5.7742,5.9588,6.0973,6.0742,6.2589,6.382,6.3589,6.4551,6.5513,6.6359,6.6397,6.6898,6.7975,6.8052,6.8167,6.8398,6.9013,6.936,6.936,6.9937,7.0206,7.0206,7.0206,7.036,7.0552,7.0552,7.0706,7.0898,7.0898,7.0898,7.0898,7.1052,7.1129,7.1052,7.0437,7.0206,7.0206,7.0206,7.0206,7.0283,7.0821,7.0937,7.0937,7.1245,7.1245,7.1245,7.2041,7.23,7.23,7.2338,7.2313,7.2172,7.1634,7.1541,7.1595,7.1617,7.1771,7.1854,7.1854,7.1876,7.187,7.1904,7.1926,7.1954,7.1978,7.1992,7.1914,7.168,7.2344,0.0,7.2578,7.3236,7.3286,7.2034,7.1909,7.1948,7.1992,7.1562,7.2031,7.3711,7.3351,7.2948,7.2596,7.2073,7.1416,7.0516,6.8641,6.7499,0.0,0.0,0.0,0.0,0.0,0.0,0.0,0.0,0.0,0.0,0.0,0.0,0.0,0.0,0.0,0.0,0.0,0.0,0.0,0.0,0.0,0.0,5.9573,6.105,6.0666,6.1743,6.2743,6.3089,6.4012,6.4897,6.559,6.609,6.6744,6.759,6.7628,6.8013,6.8898,6.8936,6.909,6.9436,6.9937,7.0206,7.0206,7.0744,7.1014,7.1014,7.1091,7.1129,7.1129,7.1129,7.1129,0.0,7.1129,7.1129,7.1168,7.1283,7.1544,0.0,0.0,0.0,0.0,0.0,7.1467,7.1231,7.184,7.1877,7.1733,7.1994,7.2211,7.2496,7.3115,7.3308,7.3303,7.3408,7.3372,7.3158,7.2423,7.2263,7.2161,7.1896,7.1901,7.1992,7.1992,7.228,7.2521,7.2531,0.0,0.0,7.3081,7.2773,7.2539,7.2539,7.3281,7.3711,7.3359,7.4062,7.4219,7.3203,7.3086,7.3086,7.3086,7.2422,0.0,0.0,0.0,7.3047,7.1992,7.1936,0.0,0.0,0.0,0.0,0.0,0.0,0.0,0.0,6.532,6.4859,0.0,0.0,0.0,0.0,0.0,0.0,0.0,0.0,0.0,0.0,0.0,0.0,0.0,0.0,0.0,0.0,6.2128,6.3808,6.3939,6.3862,6.4008,6.4614,6.482,6.5513,6.7013,6.7244,6.7667,6.8552,6.859,6.8975,6.986,0.0,0.0,0.0,0.0,7.0975,7.0975,7.1129,7.1222,7.1262,7.1416,7.1493,7.1493,7.1493,7.1493,7.1493,7.1493,7.1493,7.1531,7.1607,7.2203,7.2935,7.212,7.1724,7.1763,7.2635,7.2457,0.0,0.0,0.0,0.0,7.2977,7.349,7.4063,7.4184,7.4209,7.4261,7.4431,7.4362,7.4109,7.3587,7.3391,7.3142,7.2479,7.2383,7.2422,7.2305,7.289,7.3437,7.3437,7.4062,7.4648,7.4726,7.4023,7.3437,7.3437,7.418,7.4453,7.3672,7.4336,7.4805,7.4609,0.0,0.0,7.4609,7.3164,7.3047,7.4765,7.3359,7.2031,7.1133,7.1015,7.0452,6.9372,6.9227,6.9847,7.1206,7.1014,7.0937,7.0821,6.6282,6.5359,0.0,0.0,0.0,0.0,0.0,0.0,0.0,0.0,0.0,0.0,0.0,0.0,0.0,0.0,0.0,6.0834,6.3145,6.4828,6.4828,6.5994,6.6394,6.5149,6.6255,6.7218,6.7564,6.8052,6.8783,6.9771,6.9694,7.0079,7.1118,7.1156,0.0,7.1387,7.1387,7.1387,7.1387,7.1426,7.1448,7.1442,0.0,0.0,7.1481,7.1481,7.1481,7.1481,7.1481,7.1481,7.1564,7.239,7.3347,7.4223,7.3706,7.3129,7.2651,7.3625,7.3795,7.3588,7.4063,7.403,7.3834,7.4148,7.4247,7.4414,7.528,7.5538,0.0,7.5594,7.5564,7.5345,7.4531,7.4835,7.513,7.4296,7.4648,7.4961,7.4258,7.4219,7.4336,7.4336,7.4492,7.4805,7.5547,7.4922,7.4336,7.4336,7.5078,7.5586,7.543,7.6172,7.6172,7.4765,7.4609,7.4609,7.4609,7.4297,7.4844,7.6601,7.5703,7.5078,7.4844,7.418,7.328,7.2218,7.2163,7.1926,7.1464,7.1245,7.1129,7.1091,6.9975,6.9706,0.0,0.0,0.0,0.0,0.0,0.0,0.0,0.0,0.0,0.0,0.0,5.6999,5.8911,0.0,6.1673,6.3136,6.4752,6.6023,6.6594,6.7385,6.7539,6.6513,6.7541,6.8471,6.8898,6.9246,6.9839,7.076,7.0761,7.0911,7.1454,7.1492,7.1492,7.1492,7.1492,7.1492,7.1492,7.1582,7.1582,7.1608,7.1689,7.1767,7.1767,7.1767,7.1767,7.1767,7.2197,7.2665,7.3189,7.5017,7.5818,7.595,7.6614,7.556,7.3868,7.5234,7.5424,7.5104,7.6169,7.6433,7.6275,7.6481,7.6744,7.7116,7.7647,7.7812,7.7812,7.7812,7.7812,7.7617,7.6758,7.6875,7.6992,7.6094,7.6211,7.6328,7.543,7.5586,7.5781,7.5351,7.5586,7.6055,7.6484,7.6172,7.5898,7.5898,7.6289,7.6562,7.6562,7.6914,7.6875,7.5976,7.5898,7.5898,7.5898,7.5898,7.6289,7.7148,7.6797,7.6367,7.5937,7.5469,7.4805,7.3828,7.3281,7.2744,7.2263,7.1628,7.134,7.1349,7.1245,7.1091,0.0,0.0,0.0,0.0,0.0,0.0,0.0,0.0,5.634,5.8308,5.8605,5.9205,6.1653,6.2654,6.3701,6.541,6.638,6.7208,6.8076,6.8486,6.8593,6.832,6.8865,6.9528,7.024,7.0396,7.0784,7.1567,7.1571,7.1559,7.1611,7.1622,7.1622,7.1622,7.1622,7.1622,7.1622,7.1861,7.1988,7.201,7.2353,7.25,7.25,7.25,7.2617,7.2812,7.3672,7.4531,7.5506,7.7626,7.8157,7.7812,7.918,7.8008,7.5742,7.7187,7.7226,7.6836,7.8242,7.8711,7.8711,7.8711,7.918,7.9687,7.9687,7.9687,7.9687,7.9687,7.9687,7.9531,7.8906,7.8867,7.8789,7.789,7.7812,7.7656,7.664,7.6953,7.7187,7.6328,7.6719,7.7265,7.7422,7.7461,7.7383,7.7226,7.7187,7.7265,7.7422,7.7461,7.75,7.7656,7.7695,7.7695,7.7695,7.7695,7.7695,7.7695,7.7539,7.7148,7.6445,7.625,7.5742,7.4883,7.3984,7.3476,7.332,7.2455,7.2064,7.2041,7.1827,7.1493,5.4049,5.428,0.0,5.7203,5.7165,5.7649,0.0,0.0,6.0811,6.2721,6.3085,6.3464,6.4707,6.501,6.5446,6.6566,6.7448,6.8075,6.816,6.9489,7.0427,7.0388,7.0427,7.0544,7.0622,7.1169,7.1636,7.19,7.1797,7.1765,7.1945,7.195,7.195,7.195,7.195,7.195,7.195,7.2726,7.3111,7.3111,7.3944,7.4297,7.4297,7.4297,7.4726,7.5508,7.6406,7.7265,7.8086,7.8392,7.8862,7.9453,7.9648,7.9453,7.914,7.9336,7.9375,7.9297,7.9492,7.957,7.957,7.957,7.9648,7.9687,7.9687,7.9687,7.9687,7.9687,7.9687,7.9687,7.9609,8.0156,8.0508,7.9648,8.0,8.0156,7.8555,7.8281,7.8086,7.7226,7.7148,7.7461,7.8203,7.8359,7.8086,7.7305,7.7187,7.7461,7.8242,7.8359,7.8633,7.9336,7.9414,7.9414,7.9414,7.9414,7.9414,7.9414,7.875,7.832,7.8203,7.7461,7.664,7.5781,7.5625,7.5195,7.4414,7.4139,7.3982,7.3971,7.3083,7.2211,5.6438,0.0,0.0,0.0,5.9842,6.0134,6.259,6.253,6.2493,6.4432,6.4775,6.5054,6.6068,6.6683,6.7173,0.0,6.8398,6.9101,6.9609,7.0273,7.0898,7.1406,7.1445,7.1445,7.1445,7.1719,7.1914,7.1992,7.1916,7.1893,7.1992,7.1992,7.1992,7.1992,7.25,7.2773,7.2773,7.3633,7.4062,7.4062,7.4922,7.5078,7.4609,7.5117,7.582,7.6719,7.8086,7.914,8.0,8.0508,8.0898,8.1211,8.1211,8.1211,8.1133,8.0625,8.0469,8.0547,8.1054,8.1211,8.1211,8.1211,8.1211,8.1211,8.1211,8.1211,8.1211,8.1211,8.1211,8.1211,8.1211,8.1484,8.164,8.1289,8.1484,8.1562,8.0859,8.0703,8.0586,8.0234,8.0156,8.0117,7.9961,7.9961,7.9648,7.8789,7.8633,7.8789,7.914,7.9219,7.9336,7.9648,7.9687,7.9687,7.9687,7.9687,7.9687,7.9687,7.9375,7.8984,7.8515,7.8164,7.7539,7.668,7.664,7.6484,7.6094,7.6015,7.572,7.5246,7.5314,7.4616,5.7815,0.0,0.0,6.1331,6.2065,6.2625,6.3621,6.3785,6.4142,6.5656,6.5883,6.6114,6.7062,6.7773,6.8281,6.8515,6.9258,7.0039,7.0625,7.0898,7.1289,7.1914,7.1992,7.1992,7.1992,7.1992,7.1992,7.1992,7.1992,7.1992,7.1992,7.2226,7.2344,7.2344,7.3203,7.3672,7.3672,7.4531,7.4961,7.4961,7.6094,7.6289,7.5703,7.6797,7.7656,7.832,7.9805,8.0781,8.1406,8.2031,8.2304,8.2304,8.2304,8.2304,8.2226,8.1601,8.1367,8.1445,8.207,8.2304,8.2304,8.2304,8.2304,8.2304,8.2304,8.2304,8.2304,8.2304,8.2461,8.2656,8.2656,8.2851,8.3008,8.3008,8.3008,8.2969,8.2695,8.2656,8.2578,8.2344,8.2304,8.2109,8.1484,8.1367,8.1133,8.0508,8.0429,8.0312,8.0078,8.0273,8.0429,8.0429,8.0429,8.0429,8.0429,8.0429,8.0429,8.0429,8.0195,7.9805,7.9219,7.875,7.8203,7.7578,7.7305,7.7305,7.7578,7.7578,7.7344,7.6953,7.7355,7.6897,5.7418,5.8693,6.0378,6.2141,6.3803,6.5256,6.626,6.6486,6.6554,6.6817,6.6875,6.7109,6.8008,6.8164,6.8476,6.9336,7.0156,7.0664,7.0703,7.1445,7.1953,7.1992,7.1992,7.1992,0.0,7.1992,7.1992,7.1992,7.1992,7.1992,7.1992,7.2812,7.3242,7.3242,7.4101,7.457,7.457,7.543,7.5859,7.5898,7.7617,7.8398,7.8437,8.0078,8.0859,8.0937,8.1836,8.2226,8.2265,8.2304,8.2304,8.2304,8.2304,8.2304,8.2304,8.2265,8.2265,8.2265,8.2304,8.2304,8.2304,8.2304,8.2304,8.2304,8.2304,8.2304,8.2304,8.2304,8.289,8.3554,8.3554,8.4179,8.4804,8.4804,8.4804,8.4609,8.375,8.3554,8.332,8.2461,8.2304,8.2304,8.2265,8.2265,8.2265,8.2226,8.2226,8.1914,8.1054,8.1719,8.2226,8.2226,8.2226,8.2226,8.2226,8.2226,8.2226,8.2226,8.1445,8.0937,8.0937,7.9375,7.8476,7.8476,7.7617,7.7617,7.8476,7.8476,7.8867,7.957,7.8828,7.8437,5.8684,6.0522,6.24,6.404,6.5368,6.6371,6.6697,6.6798,6.6837,6.6872,6.6914,6.6797,6.6523,6.7851,6.8906,6.8672,7.0273,7.1562,7.1562,7.1836,7.1992,7.1992,7.1992,0.0,0.0,0.0,0.0,7.1992,7.2539,7.2851,7.2851,7.3672,7.414,7.414,7.5,7.5469,7.5469,7.6328,7.7031,7.7656,7.875,7.9609,8.0195,8.0742,8.1015,8.1054,8.1914,8.2304,8.2304,8.2304,8.2656,8.3164,8.3164,8.3515,8.4023,8.4023,8.4023,8.3867,8.2695,8.2304,8.2383,8.2969,8.3164,8.3281,8.3867,8.4023,8.4023,8.4023,8.4258,8.4453,8.4453,8.4687,8.4883,8.4883,8.4883,8.4961,8.5273,8.5312,8.539,8.5703,8.5742,8.5586,8.5,8.4883,8.4492,8.3359,8.2656,8.2187,8.1914,8.2109,8.2304,8.2304,8.2304,8.2304,8.2304,8.2304,8.2304,8.2304,8.2031,8.1601,8.1015,8.0469,7.9883,7.9297,7.9023,7.9297,8.0156,8.0156,8.0312,8.0586,8.0898,8.039,6.0032,6.2001,6.3787,6.5152,6.6172,6.6914,6.6914,6.7148,6.7344,6.7344,6.7344,6.7265,6.6992,6.832,6.9258,6.8711,7.0273,7.1523,7.1523,7.1523,7.164,7.1953,7.1992,7.1992,0.0,0.0,0.0,7.2461,7.2969,7.3437,7.375,7.4609,7.5078,7.5078,7.5898,7.6367,7.6367,7.7226,7.8242,7.9414,8.0234,8.1094,8.1953,8.2265,8.2383,8.2422,8.3008,8.3242,8.3242,8.3242,8.3554,8.4062,8.4062,8.4414,8.4883,8.4883,8.4883,8.4726,8.3633,8.3242,8.332,8.3867,8.4062,8.4179,8.4726,8.4883,8.4883,8.4883,8.5117,8.5351,8.5351,8.5586,8.582,8.582,8.582,8.5976,8.6523,8.664,8.6836,8.7383,8.75,8.7226,8.6367,8.5937,8.5351,8.4219,8.3594,8.3008,8.2383,8.2304,8.2304,8.2304,8.2304,8.2304,8.2304,8.2304,8.2304,8.2304,8.2304,8.2031,8.1484,8.1172,8.0898,8.0625,8.0312,8.0742,8.1914,8.1914,8.1914,8.1953,8.25,8.1992,6.125,6.3008,6.458,6.5434,6.6366,6.7031,6.7031,6.7656,6.8242,6.8203,6.8203,6.8398,0.0,0.0,6.9453,6.9375,7.0156,7.0781,7.0781,7.0781,7.1055,0.0,0.0,0.0,0.0,0.0,0.0,7.3437,0.0,7.3789,7.4609,7.5508,7.5976,7.5976,7.6758,7.7187,7.7187,7.8164,7.9453,8.1133,8.2031,8.2851,8.3672,8.4531,8.4883,8.4883,8.4883,8.4883,8.4883,8.4883,8.4922,8.4961,8.4961,8.5,8.5039,8.5039,8.5039,8.5039,8.5039,8.4961,8.4922,8.4961,8.4961,8.4961,8.5039,8.5039,8.5039,8.5039,8.5625,8.6289,8.6289,8.6875,8.75,8.75,8.75,8.75,8.75,8.75,8.75,8.75,8.7539,8.7304,8.6484,8.5625,8.5078,8.5078,8.5078,8.4414,8.2656,8.2422,8.2422,8.2422,8.2422,8.2422,8.2422,8.2383,8.2383,8.2383,8.2304,8.2304,8.2344,8.1562,8.1523,8.2422,8.1562,8.1953,8.3672,8.3633,8.3633,8.3672,8.3672,8.3203,6.1133,6.3383,6.5449,6.6144,6.7617,6.8828,6.8789,6.8945,6.8906,6.832,6.8203,6.7851,0.0,0.0,0.0,6.8594,7.0273,0.0,7.168,7.168,0.0,7.1953,0.0,7.2969,7.2969,7.375,0.0,0.0,7.5234,7.5312,7.5547,7.6406,7.6875,7.6875,7.707,7.7187,7.7187,7.9297,8.1211,8.2969,8.3828,8.4336,8.457,8.4804,8.4883,8.4883,8.4883,8.4883,8.4883,8.4883,8.5273,8.5859,8.5859,8.6289,8.6836,8.6836,8.6836,8.6836,8.6836,8.5976,8.5,8.5664,8.5859,8.5976,8.664,8.6836,8.6836,8.6836,8.6992,8.7187,8.7187,8.7344,8.75,8.75,8.75,8.75,8.75,8.75,8.75,8.75,8.7969,8.832,8.8086,8.789,8.7734,8.7734,8.7226,8.6211,8.4453,8.4258,8.4258,8.4258,8.4258,8.4258,8.4258,8.3633,8.3281,8.3281,8.2656,8.2578,8.3242,8.3047,8.3359,8.4219,8.3398,8.3476,8.457,8.3906,8.3945,8.457,8.457,8.4453,6.3437,6.5547,6.7414,6.7782,6.8684,6.9336,6.8945,6.918,6.9219,6.8359,6.8203,6.789,6.6914,6.8203,0.0,0.0,0.0,0.0,7.1445,7.1445,7.1719,0.0,7.3008,0.0,7.3828,7.4648,7.5351,0.0,7.5898,7.6055,7.6445,7.6914,7.7187,7.7187,7.7578,7.832,7.9414,8.0859,8.2461,8.4179,8.5039,8.5469,8.5469,8.5859,8.6054,8.6054,0.0,8.6054,8.6054,8.6054,8.6328,8.6758,8.6758,8.707,8.75,8.75,8.75,8.75,8.75,8.6875,8.6133,8.6601,8.6758,8.6875,8.7344,8.75,8.75,8.75,8.75,8.75,8.75,8.75,8.75,8.75,8.75,8.75,8.75,8.7773,8.8125,8.8515,8.8945,8.9258,8.9258,8.9258,8.9258,8.9258,8.8906,8.8242,8.7265,8.6484,8.6054,8.6054,8.6054,8.5898,8.5508,8.5039,8.457,8.4179,8.3711,8.3672,8.414,8.4179,8.457,8.5469,8.5,8.5156,8.6054,8.5547,8.5351,8.5469,8.5469,8.5273,6.6445,6.8164,6.9492,6.9648,6.9687,6.9492,6.8594,6.9023,6.9336,6.8242,6.8125,6.8164,6.8047,6.875,6.9101,6.8476,0.0,7.0742,7.0859,7.0976,7.1601,7.3125,7.3515,7.3945,7.4687,7.5547,7.6055,7.6055,7.6055,7.6406,7.7148,7.7187,7.7265,7.7383,7.832,8.0,8.2461,8.2578,8.3515,8.5234,8.6015,8.6367,8.6406,8.7148,8.75,8.75,0.0,0.0,8.75,8.75,8.75,8.75,8.75,8.75,8.75,8.75,8.75,8.75,8.75,8.75,8.75,8.75,8.75,8.75,8.75,8.75,8.75,8.75,8.75,8.7539,8.7617,8.7656,8.7695,8.7812,8.7812,8.7812,8.7812,8.8398,8.9101,8.9844,9.0078,9.0156,9.0156,9.0273,9.0351,9.0351,9.0351,9.0351,9.0351,8.8867,8.7812,8.7812,8.7812,8.7539,8.6758,8.6601,8.6211,8.5469,8.5312,8.5234,8.5234,8.5234,8.5586,8.6367,8.6367,8.6758,8.75,8.75,8.7109,8.6367,8.6367,8.5976,6.6445,6.8125,6.9609,7.0312,7.1015,7.1133,6.9609,6.9922,6.9844,6.7578,6.7695,6.7969,6.7265,6.7851,6.8594,6.9101,7.0039,7.0937,7.168,7.2383,7.2969,0.0,7.457,7.5508,7.5664,7.6445,0.0,0.0,0.0,7.7031,7.7187,7.7187,7.7539,7.8242,7.9765,8.1484,8.3359,8.4101,8.5312,8.7031,8.7187,8.7265,8.7265,8.7422,8.75,8.75,0.0,0.0,8.75,8.75,8.75,8.75,8.75,8.75,8.75,8.75,8.75,8.75,8.75,8.75,8.75,8.75,8.75,8.75,8.75,8.75,8.75,8.75,8.75,8.7656,8.832,8.8476,8.8672,8.9414,8.957,8.957,8.957,8.9687,8.9804,8.9961,9.0586,9.1054,9.1054,9.1679,9.2148,9.2148,9.2148,9.2148,9.2148,9.0625,8.957,8.957,8.957,8.9492,8.9336,8.8672,8.8203,8.8047,8.7422,8.7031,8.7031,8.7031,8.7109,8.7265,8.7265,8.7344,8.75,8.75,8.7422,8.7265,8.7265,8.7187,6.8281,6.9805,7.0859,7.1289,7.168,7.1562,6.9844,6.9765,6.9414,6.7344,6.7226,6.7383,6.6992,6.7969,6.8984,6.9375,7.0547,7.1523,7.1953,7.2734,7.3476,7.3906,7.5117,7.6094,0.0,7.6953,0.0,0.0,0.0,7.7695,7.7226,7.7617,7.8672,8.0429,8.082,8.2265,8.4922,8.4922,8.5781,8.75,8.75,8.75,8.75,8.75,8.75,8.75,8.75,0.0,8.75,8.75,8.75,8.7539,8.7969,8.8125,8.8164,8.8633,8.8789,8.8789,8.8789,8.8789,8.8789,8.8789,8.8476,8.8125,8.8125,8.8437,8.8789,8.8789,8.8789,8.8906,8.9297,8.9375,8.9492,8.9883,9.0,9.0117,9.0586,9.0664,9.082,9.125,9.1679,9.1992,9.1992,9.2304,9.2617,9.2617,9.2617,9.2617,9.2617,9.1875,9.1367,9.1367,9.1367,9.1172,9.0703,9.0273,8.9844,8.9414,8.9023,8.8789,8.8789,8.8789,8.8594,8.8125,8.8125,8.7929,8.75,8.75,8.75,8.75,8.75,8.75,7.0117,7.1328,7.1992,7.1992,7.1992,7.1484,6.957,6.9297,6.8867,6.6992,6.6758,6.6953,6.7148,6.8281,6.9336,6.9687,7.0859,7.1836,7.2226,7.3047,7.3906,7.4765,7.5664,0.0,7.7148,7.7187,0.0,0.0,0.0,0.0,7.7773,7.8555,8.0039,8.2226,8.1992,8.3242,8.6172,8.5703,8.6133,8.75,8.75,8.75,8.75,8.75,8.75,8.75,8.75,0.0,0.0,8.7773,8.7851,8.8086,8.8711,8.8984,8.9062,8.9765,9.0,9.0,9.0,9.0,9.0,9.0,8.9531,8.8984,8.8984,8.9453,9.0,9.0,9.0,9.0039,9.0234,9.0273,9.0312,9.0508,9.0547,9.0742,9.1445,9.1562,9.1797,9.2461,9.2617,9.2617,9.2617,9.2617,9.2617,9.2617,9.2617,9.2617,9.2617,9.2422,9.2304,9.2304,9.25,9.2304,9.164,9.1562,9.1289,9.0586,9.0547,9.0469,9.0273,9.0273,8.9883,8.8984,8.8984,8.8672,8.8047,8.7851,8.7773,8.7734,8.7578,8.75,7.043,7.1328,7.1992,7.1992,7.1992,7.1367,6.8867,6.8867,6.8711,6.6211,6.6367,6.7148,6.793,6.8203,6.8828,7.0351,7.0703,7.1367,7.2969,7.3945,7.4805,7.5664,0.0,0.0,7.7187,7.7187,0.0,0.0,0.0,0.0,7.9453,8.0312,8.125,8.2265,8.375,8.5078,8.6172,8.6914,8.7344,8.75,8.75,8.75,8.75,8.75,8.75,8.75,0.0,0.0,0.0,8.8594,8.9062,8.9765,8.9844,8.9883,8.9883,8.9961,9.0,9.0,9.0,9.0,9.0,9.0,8.9961,8.9883,8.9883,8.9922,9.0,9.0,9.0,9.0195,9.0976,9.1172,9.1367,9.2187,9.2344,9.2383,9.2461,9.2461,9.25,9.2578,9.2617,9.2617,9.2617,9.2617,9.2617,9.2617,9.2617,9.2617,9.2617,9.1914,9.1406,9.1406,9.2148,9.2578,9.25,9.2461,9.2461,9.2383,9.2344,9.1992,9.1211,9.1172,9.0781,8.9883,8.9883,8.9844,8.9765,8.8984,8.8594,8.8554,8.7851,8.75,7.0703,7.1758,7.1992,7.1992,7.1601,7.082,6.9336,6.8828,6.8242,6.6719,6.664,6.7187,6.8047,6.8633,6.9375,7.0508,7.1133,7.1719,7.2422,7.3281,7.414,7.5,7.5898,0.0,0.0,0.0,0.0,0.0,0.0,0.0,8.125,8.1094,8.1875,8.3789,8.4023,8.5039,8.6953,8.6797,8.6992,8.75,8.75,8.75,8.7539,8.8008,8.8203,8.8242,0.0,0.0,0.0,8.9492,8.9687,9.0039,9.0586,9.0781,9.0859,9.1367,9.1562,9.1562,9.1562,9.1562,9.1562,9.1562,9.1562,9.1484,9.0937,9.1133,9.1562,9.1562,9.1562,9.164,9.1992,9.207,9.2187,9.2539,9.2617,9.2617,9.2617,9.2617,9.2617,9.2617,9.2617,9.2617,9.2617,9.2617,9.2617,9.2617,9.2617,9.2617,9.2617,9.1836,9.1484,9.2031,9.1445,9.1054,9.1054,9.1054,9.125,9.1797,9.1836,9.1914,9.207,9.207,9.1679,9.0781,9.0781,9.0508,9.0,8.9648,8.9492,8.9453,8.914,8.8984,7.0351,7.1601,7.1992,7.1992,7.1133,7.0156,6.9609,6.8594,6.7656,6.7031,6.7109,6.7539,6.8398,6.9258,7.0117,7.0937,7.1601,7.2109,7.2344,7.289,7.3711,7.4844,0.0,7.6328,0.0,0.0,0.0,0.0,0.0,0.0,0.0,8.1719,8.2461,8.4844,8.4531,8.539,8.7461,8.6875,8.6875,8.75,8.75,8.7617,8.7851,8.8437,8.8828,8.9101,0.0,0.0,0.0,9.039,9.0547,9.082,9.1445,9.1679,9.1758,9.2383,9.2617,9.2617,9.2617,9.2617,9.2617,9.2617,9.2617,9.25,9.1875,9.2109,9.2617,9.2617,9.2617,9.2617,9.2617,9.2617,9.2617,9.2617,9.2617,9.2617,9.2617,9.2617,9.2617,9.2617,9.2617,9.2617,9.2617,9.2617,9.2617,9.2617,9.2617,9.2617,9.2617,9.1601,9.125,9.2109,9.0429,8.9687,9.0664,9.0547,9.0742,9.164,9.1679,9.1953,9.2578,9.2617,9.2304,9.1719,9.1445,9.1133,9.0781,9.0234,9.0117,9.039,9.0117,9.0,6.9297,7.0742,7.1992,7.1992,7.0703,6.9414,6.9414,6.8125,6.6914,6.6914,6.7578,6.8437,6.9258,7.0117,7.0976,7.1836,7.1992,7.2305,7.3164,7.3281,7.3945,0.0,0.0,7.6562,0.0,0.0,0.0,0.0,0.0,0.0,0.0,8.2304,8.3086,8.4844,8.5742,8.6601,8.75,8.75,8.75,8.75,8.75,8.7929,8.8672,8.8711,8.9179,0.0,0.0,0.0,0.0,9.1289,9.1797,9.2578,9.2578,9.2578,9.2578,9.2617,9.2617,9.2617,9.2617,9.2617,9.2617,9.2617,9.2617,9.2617,9.2578,9.2578,9.2617,9.2617,9.2617,9.2617,9.2617,9.2617,9.2617,9.2617,9.2617,9.2617,9.2617,9.2617,9.2617,9.2617,9.2617,9.2617,9.2617,9.2617,9.2617,9.2617,9.2617,9.2617,9.2617,9.1094,9.0351,9.1211,8.9023,8.8906,9.2304,9.1797,9.164,9.2539,9.2578,9.2578,9.2617,9.2617,9.2617,9.2578,9.1758,9.1719,9.2578,9.0859,9.0429,9.1289,9.039,9.0,6.7148,6.8125,6.8672,6.9258,6.8555,6.7851,6.8437,6.7695,6.6914,6.6914,6.7109,6.7734,6.9219,6.9648,7.0273,7.1758,7.1992,7.2109,7.2383,7.293,7.3711,7.4883,7.6601,7.8359,0.0,0.0,0.0,0.0,0.0,0.0,0.0,8.2851,8.3711,8.4844,8.5156,8.6015,8.75,8.75,8.7773,8.832,8.832,8.8789,8.9609,9.0195,0.0,0.0,0.0,0.0,0.0,9.2187,9.2344,9.2617,9.2617,9.2617,9.2617,9.2617,9.2617,9.2617,9.2617,9.2617,9.2617,9.2617,9.2617,9.2617,9.2617,9.2617,9.2617,9.2617,9.2617,9.2617,9.2617,9.2617,9.2617,9.2617,9.2617,9.2617,9.2617,9.2617,9.2617,9.2617,9.2617,9.2617,9.2617,9.2617,9.2617,9.2617,9.2617,9.2812,9.3398,9.1953,9.1445,9.2929,9.0742,8.9414,8.9883,8.9687,8.9648,8.9922,9.1054,9.1445,9.0859,9.1953,9.2304,9.1719,9.2031,9.2304,9.2617,9.2031,9.1601,9.1328,9.164,9.1445,6.6289,6.7344,6.7969,6.8515,6.7773,6.7148,6.8008,6.7265,6.6484,6.6836,6.7148,6.7812,6.9219,6.9687,7.0351,7.1758,7.1992,7.2109,7.2422,7.2969,0.0,7.539,0.0,0.0,0.0,0.0,0.0,0.0,0.0,0.0,0.0,8.3125,8.414,8.5351,8.5703,8.6719,8.8437,8.8437,8.8672,8.9179,8.9179,8.9648,9.0508,9.1054,0.0,0.0,0.0,0.0,0.0,9.2617,9.2617,9.2617,9.2617,9.2617,9.2617,9.2617,9.2617,9.2617,9.2617,9.2617,9.2617,9.2617,9.2617,9.2539,9.2226,9.2344,9.2539,9.2187,9.2109,9.2031,9.1719,9.1875,9.2109,9.2109,9.2344,9.2617,9.2617,9.2851,9.3008,9.2656,9.2851,9.3008,9.2656,9.2851,9.3086,9.3086,9.3086,9.3281,9.3828,9.2383,9.1836,9.3242,9.1367,8.9922,8.9687,8.9687,8.9687,8.9687,9.0703,9.0898,9.0039,9.1054,9.1367,9.082,9.1015,9.1289,9.1601,9.1601,9.1679,9.1797,9.1992,9.1836,0.0,6.7969,6.9062,6.9101,6.7969,6.7031,6.789,6.6836,0.0,6.6719,6.7539,6.8359,6.9258,7.0078,7.0898,7.1836,7.1992,7.2305,7.3164,7.3476,0.0,0.0,7.9492,0.0,0.0,0.0,0.0,0.0,0.0,0.0,0.0,8.3203,8.4492,8.625,8.7148,8.8359,8.9961,9.0,9.0039,9.0078,9.0078,9.0547,9.1406,9.1406,0.0,0.0,0.0,0.0,0.0,9.2617,9.2617,9.2617,9.2617,9.2617,9.2617,9.2617,9.2617,9.2578,9.2539,9.25,9.25,9.25,9.2539,9.2461,9.1719,9.1992,9.2422,9.1562,9.1289,9.1094,9.0234,9.0664,9.1328,9.1367,9.207,9.2695,9.2773,9.3437,9.375,9.2929,9.3437,9.375,9.2929,9.3476,9.3984,9.3984,9.3945,9.3906,9.3984,9.2461,9.1719,9.2617,9.1172,9.0508,9.1328,9.1328,9.125,9.1133,9.1211,9.0859,8.9844,8.9922,8.9961,8.9922,8.9179,8.9179,9.0,9.0,9.0781,9.2304,9.1562,9.1172,6.6797,0.0,6.5664,6.6328,6.6211,6.6133,0.0,6.6875,6.664,6.6875,6.707,6.7656,6.914,6.957,7.0195,7.1758,7.1992,7.2305,7.3164,7.5039,0.0,7.8047,7.9844,0.0,0.0,0.0,0.0,0.0,0.0,0.0,0.0,8.4101,8.539,8.7148,8.8008,8.8945,9.0,9.0,9.0312,9.0976,9.0976,9.1445,9.2304,9.2304,0.0,0.0,0.0,0.0,9.2617,9.2617,9.2617,9.2617,9.2617,9.2617,9.2617,9.2617,9.2617,9.25,9.1836,9.1601,9.1601,9.1601,9.207,9.2695,9.3164,9.2969,9.2422,9.1562,9.1289,9.1094,9.0234,9.0664,9.1484,9.2148,9.2969,9.3789,9.4453,9.4765,9.4844,9.4648,9.4765,9.4844,9.4609,9.4765,9.4883,9.4883,9.4336,9.414,9.4804,9.3359,9.2617,9.3515,9.2617,9.207,9.2265,9.1679,9.0742,8.9414,9.0547,9.0312,8.8164,8.9336,8.9687,8.9023,8.9453,8.9804,9.0,9.0,8.9883,8.9648,9.0078,8.9961,6.6914,6.6484,6.6211,6.668,6.6797,6.6914,6.7383,6.7187,6.6914,6.6914,6.7226,6.789,6.9219,7.0078,7.0898,7.1836,7.2656,7.3515,7.4375,7.6406,7.8125,7.8945,8.0195,0.0,0.0,0.0,0.0,0.0,0.0,0.0,0.0,8.5039,8.6289,8.8008,8.8867,8.9726,9.0586,9.0976,9.1445,9.1914,9.1914,9.2148,9.2617,9.2617,9.2617,0.0,0.0,0.0,9.2617,9.2617,9.2617,9.2617,9.2617,9.2617,9.2656,9.3047,9.2929,9.2578,9.2539,9.2226,9.1836,9.1445,9.1875,9.2617,9.2695,9.2656,9.25,9.2031,9.1914,9.1601,9.0312,9.0664,9.1406,9.1875,9.2969,9.4023,9.4492,9.5234,9.5664,9.5273,9.5508,9.5664,9.5273,9.5547,9.5664,9.5273,9.4804,9.4531,9.4609,9.3437,9.2773,9.3242,9.289,9.2617,9.2617,9.2187,9.1328,8.9961,9.0781,9.0508,8.8711,8.9531,8.9765,8.9297,8.9375,8.9804,9.0586,8.9414,8.9219,8.9883,8.957,8.914,6.7031,6.7734,6.832,6.8086,6.8086,6.8164,6.8047,6.7422,6.6953,6.707,6.7695,6.8555,6.9687,7.0937,7.1914,7.2344,7.3867,7.5234,7.5976,7.7695,7.9101,7.9648,0.0,0.0,0.0,0.0,0.0,0.0,0.0,0.0,0.0,8.5937,8.7031,8.8476,8.9492,9.0351,9.1094,9.2109,9.2617,9.2617,9.2617,9.2617,9.2617,9.2617,9.2617,0.0,0.0,0.0,9.2617,9.2617,9.2695,9.2812,9.2812,9.289,9.3086,9.3672,9.3437,9.2851,9.3359,9.2929,9.2109,9.1484,9.1875,9.25,9.1875,9.2304,9.2969,9.2851,9.2617,9.2031,9.0429,9.0664,9.1328,9.1484,9.2734,9.3984,9.4258,9.5469,9.6328,9.5703,9.6172,9.6445,9.5703,9.6172,9.6406,9.5547,9.5273,9.4883,9.4023,9.3125,9.2617,9.2617,9.2617,9.2617,9.2617,9.2617,9.2265,9.1562,9.1367,9.0898,9.0039,9.0,9.0,9.0,8.9258,8.9648,9.1094,8.8945,8.8984,9.1054,8.9609,8.8906,6.7617,6.8594,6.8867,6.7461,6.7656,6.8008,6.7265,6.6992,6.7109,6.7851,6.8125,6.8906,7.1172,7.1211,7.1601,7.3828,7.5664,7.6836,0.0,0.0,8.039,0.0,0.0,0.0,0.0,0.0,0.0,0.0,0.0,0.0,0.0,8.6836,8.7422,8.7695,8.9179,9.0078,9.0195,9.1797,9.2617,9.2617,9.2617,9.2617,9.2617,9.2617,9.2617,0.0,0.0,9.2617,9.2617,9.2617,9.3047,9.3711,9.3711,9.414,9.4726,9.4101,9.3828,9.3515,9.2148,9.1133,9.0508,9.1094,9.1875,9.2695,9.332,9.4101,9.4648,9.3906,9.2656,9.1289,9.0273,9.0664,9.1484,9.2226,9.3164,9.4297,9.5781,9.6328,9.664,9.7226,9.7422,9.7461,9.7344,9.7422,9.7226,9.6406,9.5664,9.4883,9.4023,9.3125,9.2617,9.2617,9.2617,9.2617,9.2617,9.2617,9.2539,9.2422,9.1719,9.0898,9.0039,9.0,9.0,9.0,8.9883,8.9922,9.0195,8.9804,8.9804,9.0195,8.9922,8.9804,6.6562,6.7734,6.8555,6.7773,6.8594,6.9453,6.9023,6.8945,6.8945,6.8867,6.9609,7.0625,7.1797,7.2422,7.3672,7.6289,0.0,7.7539,7.8437,0.0,0.0,0.0,0.0,0.0,0.0,0.0,0.0,0.0,0.0,0.0,0.0,0.0,8.7695,8.8125,8.9336,9.0234,9.0703,9.1953,9.2617,9.2617,9.2617,9.2617,9.2617,9.2617,9.2617,9.2617,0.0,9.2851,9.3281,9.3281,9.3828,9.4609,9.4609,9.457,9.4375,9.3515,9.3515,9.3711,9.2422,9.1758,9.1484,9.1875,9.2265,9.2656,9.3086,9.3476,9.3711,9.332,9.2969,9.25,9.164,9.1719,9.2109,9.25,9.3281,9.4101,9.4922,9.5859,9.6601,9.6992,9.7383,9.7695,9.7695,9.7695,9.7265,9.5976,9.5469,9.4726,9.3359,9.2851,9.2617,9.2617,9.2617,9.2617,9.2617,9.2617,9.2617,9.2617,9.2226,9.1836,9.1406,9.1406,9.1406,9.1406,9.0937,9.0937,9.1406,9.0469,9.0234,9.0703,9.0234,9.0,6.5781,6.7031,6.8242,6.8437,6.9297,7.0234,0.0,0.0,0.0,7.0312,7.1367,7.2383,7.2578,7.3867,0.0,7.7578,7.7812,0.0,0.0,0.0,0.0,0.0,0.0,0.0,0.0,0.0,0.0,0.0,0.0,0.0,0.0,0.0,8.7773,8.8398,8.9258,9.0117,9.0976,9.1875,9.2383,9.2617,9.2617,9.2617,9.2617,9.2812,9.289,9.2929,9.3125,9.3594,9.4219,9.4219,9.4609,9.5195,9.5195,9.4687,9.3828,9.3164,9.3203,9.3515,9.2812,9.2617,9.2617,9.2617,9.2617,9.2617,9.2617,9.2617,9.2617,9.2617,9.3086,9.3437,9.2773,9.2617,9.2617,9.2617,9.3125,9.3633,9.3867,9.5117,9.625,9.6445,9.7148,9.7695,9.7695,9.7695,9.7148,9.5469,9.5195,9.457,9.2812,9.2617,9.2617,9.2617,9.2617,9.2617,9.2617,9.2617,9.2617,9.2617,9.2617,9.2617,9.2617,9.2617,9.2617,9.2617,9.1953,9.1914,9.2617,9.125,9.0937,9.1601,9.0937,9.0625,6.6367,6.75,6.8398,6.914,6.8828,6.8789,7.0351,7.0078,0.0,7.2539,0.0,0.0,0.0,7.5195,7.5859,7.6055,7.8008,0.0,0.0,0.0,0.0,0.0,0.0,0.0,0.0,0.0,0.0,0.0,0.0,0.0,0.0,0.0,0.0,8.7578,8.8359,8.9219,9.0078,9.0976,9.1797,9.2617,9.2617,9.2617,9.2617,9.3437,9.3828,9.3867,9.4648,9.5039,9.5117,9.5117,9.5156,9.5195,9.5195,9.4687,9.3906,9.3828,9.332,9.2695,9.2617,9.2617,9.2617,9.2617,9.2617,9.2617,9.2617,9.2617,9.2617,9.2617,9.2656,9.2695,9.2617,9.2617,9.2617,9.2617,9.2656,9.2929,9.3711,9.4648,9.5547,9.6328,9.7148,9.7695,9.7695,9.7695,9.7148,9.5469,9.5195,9.457,9.2812,9.2617,9.2617,9.2617,9.2617,9.2617,9.2617,9.2617,9.2617,9.2617,9.2617,9.2617,9.2617,9.2617,9.2617,9.2617,9.2539,9.2539,9.2617,9.2461,9.2461,9.25,9.2422,9.2422,6.5117,6.7109,6.8945,6.8711,6.9219,7.0078,0.0,7.2109,7.2773,7.3203,7.414,0.0,0.0,0.0,7.7539,7.7539,0.0,0.0,0.0,0.0,0.0,0.0,0.0,0.0,0.0,0.0,0.0,0.0,0.0,0.0,0.0,0.0,0.0,8.75,8.8281,8.9375,9.0781,9.1679,9.2812,9.4219,9.3672,9.3672,9.4219,9.457,9.4726,9.4726,9.5078,9.5508,9.5976,9.5429,9.5508,9.5898,9.4804,9.4179,9.3828,9.3281,9.289,9.2617,9.2617,9.2617,9.2617,9.2617,9.2617,9.2617,9.2617,9.2617,9.2617,9.2617,9.2617,9.2617,9.2617,9.2617,9.2617,9.2617,9.2617,9.2695,9.3008,9.3789,9.4648,9.5508,9.6367,9.7109,9.7617,9.7304,9.6562,9.539,9.4726,9.3945,9.2734,9.2617,9.2617,9.2617,9.2617,9.2617,9.2617,9.2617,9.2617,9.2617,9.2617,9.2617,9.2617,9.2617,9.2617,9.2617,9.2617,9.2617,9.2617,9.2617,9.2617,9.2617,9.2617,9.2617,6.5039,6.707,6.914,6.9336,7.0078,7.1055,7.25,7.3515,7.4258,7.4492,7.5039,7.5469,7.543,0.0,0.0,0.0,0.0,0.0,0.0,0.0,0.0,0.0,0.0,0.0,0.0,0.0,0.0,0.0,0.0,0.0,0.0,0.0,0.0,0.0,8.8672,8.9961,9.1679,9.2578,9.3906,9.5586,9.5,9.4883,9.5195,9.5469,9.5625,9.5625,9.5898,9.6172,9.6445,9.5859,9.5625,9.5547,9.4062,9.3476,9.3437,9.2812,9.2617,9.2617,9.2617,9.2617,9.2617,9.2617,9.2617,9.2617,9.2617,9.2617,9.2617,9.2617,9.2617,9.2617,9.2617,9.2617,9.2617,9.2617,9.2617,9.2617,9.2617,9.3281,9.414,9.5039,9.5898,9.6758,9.7578,9.7226,9.6601,9.5742,9.4883,9.3984,9.3125,9.2773,9.2617,9.2617,9.2617,9.2617,9.2617,9.2617,9.2617,9.2617,9.2617,9.2617,9.2617,9.2617,9.2617,9.2617,9.2617,9.2617,9.2617,9.2617,9.2617,9.2617,9.2617,9.2617,6.664,6.7539,6.8828,7.1367,7.1367,0.0,7.4023,7.3945,7.4062,7.664,7.582,7.5156,7.6875,0.0,0.0,0.0,0.0,0.0,0.0,0.0,0.0,0.0,0.0,0.0,0.0,0.0,0.0,0.0,0.0,0.0,0.0,0.0,0.0,0.0,8.957,9.0859,9.2617,9.3476,9.4804,9.6523,9.6523,9.6054,9.5234,9.6133,9.6523,9.6523,9.7344,9.7226,9.6484,9.6484,9.5469,9.3789,9.2929,9.2617,9.2617,9.2617,9.2617,9.2617,9.2617,9.2617,9.2617,9.2617,9.2617,9.2617,9.2617,9.2617,9.2617,9.2617,9.2617,9.2617,9.2617,9.2617,9.2617,9.2617,9.2617,9.2617,9.2617,9.3281,9.414,9.5039,9.5898,9.6758,9.7539,9.7695,9.7422,9.6601,9.5742,9.4882,9.3984,9.3125,9.2578,9.2578,9.2578,9.2578,9.2578,9.2578,9.2578,9.2578,9.2578,9.2617,9.2617,9.2617,9.2617,9.2617,9.2617,9.2617,9.2617,9.2617,9.2617,9.2617,9.2617,9.2617,6.6094,6.8398,7.0781,7.0351,0.0,0.0,0.0,7.4414,0.0,0.0,7.6797,7.6758,7.789,0.0,0.0,0.0,0.0,0.0,0.0,0.0,0.0,0.0,0.0,0.0,0.0,0.0,0.0,0.0,0.0,0.0,0.0,0.0,0.0,0.0,9.0469,9.1758,9.3515,9.4375,9.5664,9.7344,9.7344,9.7226,9.6953,9.7226,9.7031,9.6523,9.6758,9.6367,9.5547,9.4922,9.4023,9.2969,9.2695,9.2617,9.2617,9.2617,9.2617,9.2617,9.2617,9.2617,9.2617,9.2617,9.2617,9.2617,9.2617,9.2617,9.2617,9.2617,9.2617,9.2617,9.2617,9.2617,9.2617,9.2617,9.2617,9.2617,9.2617,9.2812,9.3242,9.4101,9.5,9.5859,9.6719,9.6875,9.6562,9.5703,9.4861,9.389,9.2818,9.2342,9.2093,9.2093,9.2093,9.2093,9.2093,9.2093,9.2093,9.2093,9.2093,9.2256,9.2578,9.2617,9.2617,9.2617,9.2617,9.2617,9.2617,9.2617,9.2617,9.2617,9.2617,9.2617,6.8515,7.0547,7.2539,7.2539,7.3984,7.543,7.5586,0.0,0.0,0.0,7.7734,7.8086,7.9258,0.0,0.0,0.0,0.0,0.0,0.0,0.0,0.0,0.0,0.0,0.0,0.0,0.0,0.0,0.0,0.0,0.0,0.0,0.0,0.0,0.0,9.1719,9.3008,9.4414,9.5586,9.6719,9.7695,9.7383,9.7226,9.7226,9.7226,9.6953,9.6445,9.5781,9.5156,9.4609,9.375,9.3086,9.2617,9.2617,9.2617,9.2617,9.2617,9.2617,9.2617,9.2617,9.2617,9.2617,9.2617,9.2535,9.243,9.243,9.2373,9.2326,9.2326,9.2326,9.2326,9.2326,9.2326,9.2384,9.2576,9.2617,9.2617,9.2617,9.2514,9.2703,9.3574,9.4373,9.5176,9.6035,9.6464,9.6503,9.5996,9.4874,9.363,9.2242,9.1968,9.1888,9.1888,9.1888,9.1888,9.1888,9.1888,9.1888,9.1888,9.1888,9.2032,9.2313,9.2395,9.2422,9.2422,9.2539,9.2617,9.2617,9.2617,9.2617,9.2617,9.2617,9.2617,7.2305,7.3164,7.3984,7.6367,7.5937,0.0,7.7031,7.8086,7.8711,7.8633,0.0,7.9219,0.0,0.0,0.0,0.0,0.0,0.0,0.0,0.0,0.0,0.0,0.0,0.0,0.0,0.0,0.0,0.0,0.0,0.0,0.0,0.0,0.0,9.1406,9.3125,9.4414,9.5195,9.6869,9.7645,0.0,9.6824,9.6398,9.6324,9.6359,9.6317,9.6121,9.4447,9.3707,9.3668,9.2848,9.2535,9.2535,9.2535,9.2535,9.2535,9.2535,9.2535,9.2535,9.2535,9.2574,9.2653,9.2653,9.2471,9.231,9.2319,9.2092,9.1899,9.1899,9.1899,9.1899,9.1899,9.1899,9.2004,9.2424,9.2533,9.2535,9.2535,9.2345,9.2426,9.3204,9.3877,9.4562,9.5418,9.6312,9.6856,9.6779,9.5243,9.3597,9.2079,9.1825,9.1825,9.1825,9.1825,9.1825,9.1825,9.1825,9.1825,9.1825,9.1825,9.1825,9.1825,9.2065,9.2179,9.2184,9.2418,9.2535,9.2535,9.2535,9.2535,9.2535,9.2535,9.2535,7.0273,7.2226,7.4453,7.5039,7.6406,7.793,7.8945,7.9844,8.0273,7.957,8.0,0.0,0.0,0.0,0.0,0.0,0.0,0.0,0.0,0.0,0.0,0.0,0.0,0.0,0.0,0.0,0.0,0.0,0.0,0.0,0.0,0.0,0.0,9.2304,9.4023,9.5,9.5195,9.6856,9.7274,0.0,9.6278,9.5717,9.4938,9.5305,9.4973,9.4071,9.2848,9.2327,9.2327,9.2132,9.2054,9.2054,9.2054,9.2054,9.2054,9.2054,9.2054,9.2054,9.2054,9.2508,9.3078,9.3078,9.3004,9.2992,9.2981,9.2498,9.1894,9.1894,9.1894,9.1894,9.1894,9.1894,9.1925,9.2025,9.2053,9.2054,9.2054,9.2031,9.199,9.2228,9.2916,9.3708,9.453,9.5412,9.5721,9.5059,9.3322,9.1985,9.163,9.1441,9.1364,9.1364,9.1364,9.1364,9.1364,9.1364,9.1364,9.1364,9.1364,9.1364,9.1364,9.1724,9.196,9.1963,9.2016,9.2054,9.2054,9.2054,9.2054,9.2054,9.2054,9.2054,7.1523,7.3437,7.543,7.625,7.8086,7.9765,8.0117,8.0937,8.1445,8.0781,8.1172,0.0,0.0,0.0,0.0,0.0,0.0,0.0,0.0,0.0,0.0,0.0,0.0,0.0,0.0,0.0,0.0,0.0,0.0,0.0,0.0,9.1367,9.1796,9.2264,9.3942,9.4831,9.4831,9.6097,9.6449,9.5907,9.5097,9.4171,9.3271,9.3943,9.3707,9.2704,9.2151,9.189,9.189,9.189,9.189,9.189,9.189,9.189,9.189,9.189,9.189,9.189,9.189,9.2199,9.256,9.2599,9.2483,9.2379,9.2382,9.2014,9.1556,9.1556,9.1556,9.1556,9.1556,9.1556,9.1556,9.1556,9.1763,9.189,9.189,9.1812,9.1705,9.1698,9.2361,9.3095,9.3905,9.5097,9.5557,9.4249,9.3172,9.2249,9.1441,9.1248,9.121,9.121,9.121,9.121,9.121,9.121,9.121,9.121,9.121,9.121,9.121,9.1441,9.1638,9.1735,9.1812,9.189,9.189,9.189,9.189,9.189,9.189,9.189,7.289,7.457,7.6289,7.832,7.9883,8.0898,8.0898,8.1553,8.2086,8.1757,0.0,0.0,0.0,0.0,0.0,0.0,0.0,0.0,0.0,0.0,0.0,0.0,0.0,0.0,0.0,0.0,0.0,0.0,0.0,0.0,9.0809,9.1509,9.1975,9.2131,9.3646,9.4402,9.4402,9.526,9.5514,9.5203,9.3609,9.2476,9.1784,9.2547,9.2496,9.1825,9.1787,9.1748,9.1748,9.1748,9.1748,9.1748,9.1748,9.1748,9.1748,9.1748,9.1748,9.1748,9.1748,9.1864,9.1979,9.1982,9.1828,9.1672,9.1672,9.1441,9.121,9.121,9.121,9.121,9.121,9.121,9.121,9.121,9.1479,9.1748,9.1748,9.1595,9.1441,9.1441,9.2018,9.2749,9.3557,9.4903,9.5365,9.3903,9.3595,9.2941,9.1402,9.121,9.121,9.121,9.121,9.121,9.121,9.121,9.121,9.121,9.121,9.121,9.121,9.121,9.1287,9.1441,9.1672,9.1748,9.1748,9.1748,9.1748,9.1748,9.1748,9.1748,6.9976,7.2578,7.6133,7.9336,8.0312,8.0664,8.1406,0.0,8.1769,0.0,0.0,0.0,0.0,0.0,0.0,0.0,0.0,0.0,0.0,0.0,0.0,0.0,0.0,0.0,0.0,0.0,0.0,0.0,0.0,0.0,9.1721,9.1837,9.2261,9.2999,9.3996,9.4458,9.442,9.5263,9.4839,9.318,9.2011,9.1402,9.1287,9.1424,9.1501,9.1518,9.1364,9.1287,9.1287,9.1287,9.1287,9.1287,9.1287,9.1287,9.1287,9.1287,9.1287,9.1287,9.1287,9.1787,9.2402,9.2441,9.2402,9.2364,9.2364,9.1825,9.121,9.121,9.121,9.121,9.121,9.121,9.121,9.121,9.1248,9.1287,9.1287,9.1287,9.1248,9.1248,9.1902,9.2749,9.3557,9.3903,9.398,9.3749,9.3095,9.2326,9.1325,9.121,9.121,9.121,9.121,9.121,9.121,9.121,9.121,9.121,9.121,9.121,9.121,9.121,9.121,9.1248,9.1287,9.1287,9.1287,9.1287,9.1287,9.1287,9.1287,9.1287,7.1329,7.425,7.7326,7.9792,8.0781,8.1208,8.1481,8.1606,8.1649,8.1388,0.0,0.0,0.0,0.0,0.0,0.0,0.0,0.0,0.0,0.0,0.0,0.0,0.0,0.0,0.0,0.0,0.0,0.0,0.0,9.1095,9.1479,9.1518,9.1672,9.2095,9.3364,9.3787,9.3326,9.417,9.3708,9.1899,9.1441,9.121,9.121,9.121,9.1248,9.1325,9.1248,9.121,9.121,9.121,9.121,9.121,9.121,9.121,9.121,9.121,9.121,9.121,9.121,9.1441,9.1787,9.1787,9.1787,9.1787,9.1787,9.1518,9.121,9.121,9.121,9.121,9.121,9.121,9.121,9.121,9.121,9.121,9.121,9.121,9.121,9.121,9.1902,9.2749,9.3557,9.4095,9.4441,9.4441,9.371,9.2864,9.2056,9.1518,9.121,9.121,9.121,9.121,9.121,9.121,9.121,9.121,9.121,9.121,9.121,9.121,9.121,9.121,9.121,9.121,9.121,9.121,9.121,9.121,9.121,9.121,7.2491,7.5005,7.7009,7.9338,8.0407,8.0977,8.1246,0.0,8.1516,0.0,0.0,0.0,0.0,0.0,0.0,0.0,0.0,0.0,0.0,0.0,0.0,0.0,0.0,0.0,0.0,0.0,0.0,0.0,0.0,9.121,9.121,9.121,9.1287,9.1518,9.2941,9.3326,9.2518,9.2864,9.2441,9.121,9.121,9.121,9.121,9.121,9.121,9.121,9.121,9.121,9.121,9.121,9.121,9.121,9.121,9.121,9.121,9.121,9.121,9.121,9.121,9.121,9.121,9.121,9.121,9.121,9.121,9.121,9.121,9.121,9.121,9.121,9.121,9.121,9.121,9.121,9.121,9.121,9.121,9.121,9.121,9.121,9.171,9.2479,9.3518,9.4249,9.4672,9.4672,9.4095,9.3326,9.2287,9.1595,9.121,9.121,9.121,9.121,9.121,9.121,9.121,9.121,9.121,9.121,9.121,9.121,9.121,9.121,9.121,9.121,9.121,9.121,9.121,9.121,9.121,9.121,7.1633,7.2544,7.3468,7.7585,7.8646,7.9107,8.0746,0.0,0.0,0.0,0.0,0.0,0.0,0.0,0.0,0.0,0.0,0.0,0.0,0.0,0.0,0.0,0.0,0.0,0.0,0.0,0.0,0.0,0.0,9.121,9.121,9.121,9.1595,9.2402,9.3249,9.3326,9.2518,9.171,9.1287,9.121,9.121,9.121,9.121,9.121,9.121,9.121,9.121,9.121,9.121,9.121,9.121,9.121,9.121,9.121,9.121,9.121,9.121,9.121,9.121,9.121,9.121,9.121,9.121,9.121,9.121,9.121,9.121,9.121,9.121,9.121,9.121,9.121,9.121,9.121,9.121,9.121,9.121,9.121,9.121,9.121,9.1248,9.1787,9.3403,9.3749,9.3749,9.3749,9.371,9.3095,9.1479,9.1248,9.121,9.121,9.121,9.121,9.121,9.121,9.121,9.121,9.121,9.121,9.121,9.121,9.121,9.121,9.121,9.121,9.121,9.121,9.121,9.121,9.121,9.121,7.153,7.2668,7.364,7.6265,7.7707,7.8685,7.93,8.0708,8.197,0.0,0.0,0.0,0.0,0.0,0.0,0.0,0.0,0.0,0.0,0.0,0.0,0.0,0.0,0.0,0.0,0.0,0.0,0.0,0.0,0.0,9.121,9.121,9.1595,9.2479,9.2787,9.2787,9.2479,9.1633,9.121,9.121,9.121,9.121,9.121,9.121,9.121,9.121,9.121,9.121,9.121,9.121,9.121,9.121,9.121,9.121,9.121,9.121,9.121,9.121,9.121,9.121,9.121,9.121,9.121,9.121,9.121,9.121,9.121,9.121,9.121,9.121,9.121,9.121,9.121,9.121,9.121,9.121,9.121,9.121,9.121,9.121,9.121,9.1748,9.3403,9.371,9.3903,9.4441,9.4057,9.3287,9.2172,9.1556,9.121,9.121,9.121,9.121,9.121,9.121,9.121,9.121,9.121,9.121,9.121,9.121,9.121,9.121,9.121,9.121,9.121,9.121,9.121,9.121,9.121,9.121,7.0437,7.1772,7.3108,7.505,7.6188,7.7254,7.8954,8.0446,8.1785,0.0,0.0,0.0,0.0,0.0,0.0,0.0,0.0,0.0,0.0,0.0,0.0,0.0,0.0,0.0,0.0,0.0,0.0,0.0,0.0,0.0,9.121,9.121,9.1595,9.2479,9.221,9.221,9.2479,9.1633,9.121,9.121,9.121,9.121,9.121,9.121,9.121,9.121,9.121,9.121,9.121,9.121,9.121,9.121,9.121,9.121,9.121,9.121,9.121,9.121,9.121,9.121,9.121,9.121,9.121,9.121,9.121,9.121,9.121,9.121,9.121,9.121,9.121,9.121,9.121,9.121,9.121,9.121,9.121,9.121,9.121,9.121,9.121,9.1748,9.3403,9.371,9.3903,9.448,9.4057,9.3287,9.221,9.1556,9.121,9.121,9.121,9.121,9.121,9.121,9.121,9.121,9.121,9.121,9.121,9.121,9.121,9.121,9.121,9.121,9.121,9.121,9.121,9.121,9.121,9.121,0.0,0.0,0.0,7.3944,7.4021,7.4802,7.9746,0.0,8.0715,0.0,0.0,0.0,0.0,0.0,0.0,0.0,0.0,0.0,0.0,0.0,0.0,0.0,0.0,0.0,0.0,0.0,0.0,0.0,0.0,9.121,9.121,9.121,9.1595,9.2441,9.1672,9.1633,9.2441,9.1633,9.121,9.121,9.121,9.121,9.121,9.121,9.121,9.121,9.121,9.121,9.121,9.121,9.121,9.121,9.121,9.121,9.121,9.121,9.121,9.121,9.121,9.121,9.121,9.121,9.121,9.121,9.121,9.121,9.121,9.121,9.121,9.121,9.121,9.121,9.121,9.121,9.121,9.121,9.121,9.121,9.121,9.121,9.121,9.171,9.3364,9.3672,9.3672,9.3672,9.3672,9.3056,9.1402,9.121,9.121,9.121,9.121,9.121,9.121,9.121,9.121,9.121,9.121,9.121,9.121,9.121,9.121,9.121,9.121,9.121,9.121,9.121,9.121,9.121,9.121,9.121,6.9179,0.0,0.0,0.0,0.0,0.0,0.0,0.0,0.0,0.0,0.0,0.0,0.0,0.0,0.0,0.0,0.0,0.0,0.0,0.0,0.0,0.0,0.0,0.0,0.0,0.0,0.0,0.0,9.121,9.121,9.121,9.1787,9.1979,9.1556,9.1941,9.1941,9.1556,9.1325,9.121,9.121,9.121,9.121,9.121,9.121,9.121,9.121,9.121,9.121,9.121,9.121,9.121,9.121,9.121,9.121,9.121,9.121,9.121,9.121,9.121,9.121,9.121,9.121,9.121,9.121,9.121,9.121,9.121,9.121,9.121,9.121,9.121,9.121,9.121,9.121,9.121,9.121,9.121,9.121,9.121,9.121,9.121,9.1556,9.2633,9.2826,9.2826,9.2826,9.2826,9.2441,9.1325,9.121,9.121,9.121,9.121,9.121,9.121,9.121,9.121,9.121,9.121,9.121,9.121,9.121,9.121,9.121,9.121,9.121,9.121,9.121,9.121,9.121,9.121,9.121,6.959,7.0294,7.0975,0.0,0.0,0.0,0.0,0.0,0.0,0.0,0.0,0.0,0.0,0.0,0.0,0.0,0.0,0.0,0.0,0.0,0.0,0.0,0.0,0.0,0.0,0.0,0.0,9.121,9.121,9.121,9.121,9.1672,9.171,9.121,9.171,9.171,9.121,9.121,9.121,9.121,9.121,9.121,9.121,9.121,9.121,9.121,9.121,9.121,9.121,9.121,9.121,9.121,9.121,9.121,9.121,9.121,9.121,9.121,9.121,9.121,9.121,9.121,9.121,9.121,9.121,9.121,9.121,9.121,9.121,9.121,9.121,9.121,9.121,9.121,9.121,9.121,9.121,9.121,9.121,9.121,9.121,9.1479,9.2364,9.2479,9.2479,9.2479,9.2479,9.2172,9.1325,9.121,9.121,9.121,9.121,9.121,9.121,9.121,9.121,9.121,9.121,9.121,9.121,9.121,9.121,9.121,9.121,9.121,9.121,9.121,9.121,9.121,9.121,9.121,6.9783,7.0294,7.1091,0.0,0.0,0.0,0.0,0.0,0.0,0.0,0.0,0.0,0.0,0.0,0.0,0.0,0.0,0.0,0.0,0.0,0.0,0.0,0.0,0.0,0.0,9.121,9.121,9.121,9.121,9.121,9.121,9.121,9.121,9.121,9.121,9.121,9.121,9.121,9.121,9.121,9.121,9.121,9.121,9.121,9.121,9.121,9.121,9.121,9.121,9.121,9.121,9.121,9.121,9.121,9.121,9.121,9.121,9.121,9.121,9.121,9.121,9.121,9.121,9.121,9.121,9.121,9.121,9.121,9.121,9.121,9.121,9.121,9.121,9.121,9.121,9.121,9.121,9.121,9.121,9.121,9.121,9.1441,9.221,9.2364,9.2364,9.2364,9.2364,9.2095,9.1287,9.121,9.121,9.121,9.121,9.121,9.121,9.121,9.121,9.121,9.121,9.121,9.121,9.121,9.121,9.121,9.121,9.121,9.121,9.121,9.121,9.121,9.121,9.121,0.0,0.0,0.0,0.0,0.0,0.0,0.0,0.0,0.0,0.0,0.0,0.0,0.0,0.0,0.0,0.0,0.0,0.0,0.0,0.0,0.0,0.0,0.0,0.0,0.0,9.121,9.121,9.121,9.121,9.121,9.121,9.121,9.121,9.121,9.121,9.121,9.121,9.121,9.121,9.121,9.121,9.121,9.121,9.121,9.121,9.121,9.121,9.121,9.121,9.121,9.121,9.121,9.121,9.121,9.121,9.121,9.121,9.121,9.121,9.121,9.121,9.121,9.121,9.121,9.121,9.121,9.121,9.121,9.121,9.121,9.121,9.121,9.121,9.121,9.121,9.121,9.121,9.121,9.121,9.121,9.121,9.1248,9.1441,9.1441,9.1441,9.1441,9.1441,9.1402,9.121,9.121,9.121,9.121,9.121,9.121,9.121,9.121,9.121,9.121,9.121,9.121,9.121,9.121,9.121,9.121,9.121,9.121,9.121,9.121,9.121,9.121,9.121,9.121,0.0,0.0,0.0,7.0898,0.0,0.0,0.0,0.0,0.0,0.0,0.0,0.0,0.0,0.0,0.0,0.0,0.0,0.0,0.0,0.0,0.0,0.0,0.0,0.0,0.0,9.121,9.121,9.121,9.121,9.121,9.121,9.121,9.121,9.121,9.121,9.121,9.121,9.121,9.121,9.121,9.121,9.121,9.121,9.121,9.121,9.121,9.121,9.121,9.121,9.121,9.121,9.121,9.121,9.121,9.121,9.121,9.121,9.121,9.121,9.121,9.121,9.121,9.121,9.121,9.121,9.121,9.121,9.121,9.121,9.121,9.121,9.121,9.121,9.121,9.121,9.121,9.121,9.121,9.121,9.121,9.121,9.121,9.121,9.121,9.121,9.121,9.121,9.121,9.121,9.121,9.121,9.121,9.121,9.121,9.121,9.121,9.121,9.121,9.121,9.121,9.121,9.121,9.121,9.121,9.121,9.121,9.121,9.121,9.121,9.121,9.121,9.121,0.0,0.0,0.0,0.0,0.0,7.1618,0.0,0.0,0.0,0.0,0.0,0.0,0.0,0.0,0.0,0.0,0.0,0.0,0.0,0.0,0.0,0.0,0.0,0.0,0.0,9.0713,9.0941,9.1402,9.0864,9.0675,9.1171,9.121,9.121,9.121,9.121,9.121,9.121,9.121,9.121,9.121,9.121,9.121,9.121,9.121,9.121,9.121,9.121,9.121,9.121,9.121,9.121,9.121,9.121,9.121,9.121,9.121,9.121,9.121,9.121,9.121,9.121,9.121,9.121,9.121,9.121,9.121,9.121,9.121,9.121,9.121,9.121,9.121,9.121,9.121,9.121,9.121,9.121,9.121,9.121,9.121,9.121,9.121,9.121,9.121,9.121,9.121,9.121,9.121,9.121,9.121,9.121,9.121,9.121,9.121,9.121,9.121,9.121,9.121,9.121,9.121,9.121,9.121,9.121,9.121,9.121,9.121,9.121,9.121,9.121,9.121,9.121,9.121,0.0,0.0,0.0,0.0,7.0898,0.0,0.0,0.0,0.0,0.0,0.0,0.0,0.0,0.0,0.0,0.0,0.0,0.0,0.0,0.0,0.0,0.0,0.0,0.0,0.0,0.0,8.9944,9.2207,8.9524,8.8833,9.1095,9.121,9.121,9.121,9.121,9.121,9.121,9.121,9.121,9.121,9.121,9.121,9.121,9.121,9.121,9.121,9.121,9.121,9.121,9.121,9.121,9.121,9.121,9.121,9.121,9.121,9.121,9.121,9.121,9.121,9.121,9.121,9.121,9.121,9.121,9.121,9.121,9.121,9.121,9.121,9.121,9.121,9.121,9.121,9.121,9.121,9.121,9.121,9.121,9.121,9.121,9.121,9.121,9.121,9.121,9.121,9.121,9.121,9.121,9.121,9.121,9.121,9.121,9.121,9.121,9.121,9.121,9.121,9.121,9.121,9.121,9.121,9.121,9.121,9.121,9.121,9.121,9.121,9.121,9.121,9.121,9.121,0.0,0.0,0.0,0.0,0.0,0.0,0.0,0.0,7.0898,0.0,0.0,0.0,0.0,0.0,0.0,0.0,0.0,0.0,0.0,0.0,0.0,0.0,0.0,0.0,0.0,0.0,0.0,0.0,0.0,8.8756,9.1787,9.1479,9.121,9.121,9.121,9.121,9.121,9.121,9.121,9.121,9.121,9.121,9.121,9.121,9.121,9.121,9.121,9.1479,9.1941,9.1941,9.1941,9.2018,9.2479,9.2056,9.121,9.121,9.121,9.121,9.121,9.121,9.121,9.121,9.121,9.121,9.121,9.121,9.121,9.121,9.121,9.121,9.121,9.121,9.121,9.121,9.121,9.121,9.121,9.121,9.121,9.121,9.121,9.121,9.121,9.121,9.121,9.121,9.121,9.121,9.121,9.121,9.121,9.121,9.121,9.121,9.121,9.121,9.121,9.121,9.121,9.121,9.121,9.121,9.121,9.121,9.121,9.121,9.121,9.121,9.121,9.121,9.121,9.121,7.3328,0.0,0.0,0.0,0.0,0.0,0.0,0.0,0.0,0.0,0.0,0.0,0.0,0.0,0.0,0.0,0.0,0.0,0.0,0.0,0.0,0.0,0.0,0.0,0.0,0.0,0.0,0.0,0.0,0.0,9.2595,9.2018,9.1556,9.1556,9.1325,9.121,9.121,9.121,9.121,9.121,9.121,9.121,9.121,9.121,9.1325,9.1556,9.1556,9.2056,9.2826,9.2826,9.2826,9.2903,9.348,9.2941,9.1864,9.1633,9.1402,9.121,9.121,9.121,9.121,9.121,9.121,9.121,9.121,9.121,9.121,9.121,9.121,9.121,9.121,9.121,9.121,9.121,9.121,9.121,9.121,9.121,9.121,9.121,9.121,9.121,9.121,9.121,9.121,9.121,9.121,9.121,9.121,9.121,9.121,9.121,9.121,9.121,9.121,9.121,9.121,9.121,9.121,9.121,9.121,9.121,9.121,9.121,9.121,9.121,9.121,9.121,9.121,9.121,9.121,9.121,0.0,0.0,0.0,7.1761,0.0,0.0,0.0,0.0,7.1926,0.0,0.0,0.0,0.0,0.0,0.0,0.0,0.0,0.0,0.0,0.0,0.0,0.0,0.0,0.0,0.0,0.0,0.0,0.0,0.0,0.0,9.3368,9.2903,9.2476,9.2476,9.1633,9.121,9.121,9.121,9.121,9.121,9.121,9.121,9.121,9.121,9.1672,9.2441,9.2441,9.2903,9.3672,9.3672,9.3672,9.3672,9.3672,9.3672,9.3518,9.2749,9.1902,9.121,9.121,9.121,9.121,9.121,9.121,9.121,9.121,9.121,9.121,9.121,9.121,9.121,9.121,9.121,9.121,9.121,9.121,9.121,9.121,9.121,9.121,9.121,9.121,9.121,9.121,9.121,9.121,9.121,9.121,9.121,9.121,9.121,9.121,9.121,9.121,9.121,9.121,9.121,9.121,9.121,9.121,9.121,9.121,9.121,9.121,9.121,9.121,9.121,9.121,9.121,9.121,9.121,9.121,9.121,0.0,0.0,8.1319,7.5678,0.0,0.0,0.0,0.0,0.0,0.0,0.0,0.0,0.0,0.0,0.0,0.0,0.0,0.0,0.0,0.0,0.0,0.0,0.0,0.0,0.0,0.0,0.0,0.0,0.0,0.0,0.0,9.3253,9.2521,9.2518,9.1633,9.121,9.121,9.121,9.121,9.121,9.121,9.121,9.121,9.1787,9.221,9.2518,9.3056,9.3787,9.4557,9.4557,9.4557,9.4595,9.5211,9.4711,9.3595,9.2787,9.2326,9.1979,9.1402,9.121,9.121,9.121,9.121,9.121,9.121,9.121,9.121,9.121,9.121,9.121,9.121,9.121,9.121,9.121,9.121,9.121,9.121,9.121,9.121,9.121,9.1672,9.2056,9.2056,9.2518,9.2479,9.1364,9.121,9.121,9.121,9.121,9.121,9.121,9.121,9.121,9.121,9.121,9.121,9.121,9.121,9.121,9.121,9.121,9.121,9.121,9.121,9.121,9.121,9.121,9.121,9.121,9.121,9.121,8.3665,8.5132,0.0,7.973,7.9922,0.0,7.4456,0.0,0.0,0.0,0.0,0.0,0.0,0.0,0.0,0.0,0.0,0.0,0.0,0.0,0.0,0.0,0.0,0.0,0.0,0.0,0.0,0.0,0.0,0.0,0.0,0.0,9.2907,9.2941,9.1787,9.121,9.121,9.121,9.121,9.121,9.1518,9.1672,9.171,9.2556,9.3095,9.3403,9.3941,9.4672,9.5441,9.5441,9.5441,9.5518,9.6095,9.5595,9.448,9.3364,9.2556,9.1979,9.1402,9.121,9.121,9.121,9.121,9.1248,9.1556,9.1672,9.1672,9.1672,9.1672,9.1595,9.1287,9.121,9.121,9.121,9.121,9.121,9.121,9.121,9.1287,9.1595,9.2133,9.2595,9.2864,9.3364,9.3326,9.2249,9.1864,9.1672,9.1672,9.1402,9.121,9.121,9.121,9.121,9.121,9.121,9.121,9.121,9.121,9.121,9.121,9.121,9.1364,9.1672,9.1364,9.1364,9.1672,9.1364,9.121,9.121,9.121,9.121]},{"header":{"parameterUnit":"m.s-1","parameterCategory":1,"la1":30.6,"la2":29.2853,"lo1":-89.7004,"lo2":-87.6739,"dx":0.0162,"dy":0.0183,"nx":112,"ny":82,"refTime":"2022-11-14T18:00:00:Z","depth":0,"parameterNumber":3,"parameterNumberName":"V-component_of_WINDS"},"data":[0.0,0.0,0.0,0.0,0.0,0.0,0.0,0.0,0.0,0.0,0.0,0.0,0.0,0.0,0.0,0.0,0.0,0.0,0.0,0.0,0.0,0.0,0.0,0.0,0.0,0.0,0.0,0.0,0.0,0.0,0.0,0.0,0.0,0.0,0.0,0.0,0.0,0.0,0.0,0.0,0.0,0.0,0.0,0.0,0.0,0.0,0.0,0.0,0.0,0.0,0.0,0.0,0.0,0.0,0.0,0.0,0.0,0.0,0.0,0.0,0.0,0.0,0.0,0.0,0.0,0.0,0.0,0.0,0.0,0.0,0.0,0.0,0.0,0.0,0.0,0.0,0.0,0.0,0.0,0.0,0.0,0.0,0.0,0.0,0.0,0.0,0.0,0.0,0.0,0.0,0.0,-1.031,-1.0453,-1.0527,-1.0527,-1.0419,-1.008,-0.9456,0.0,0.0,0.0,0.0,0.0,0.0,0.0,0.0,0.0,0.0,0.0,0.0,0.0,0.0,0.0,0.0,0.0,0.0,0.0,0.0,0.0,0.0,0.0,0.0,0.0,0.0,0.0,0.0,0.0,0.0,0.0,0.0,0.0,0.0,0.0,0.0,0.0,0.0,0.0,0.0,0.0,0.0,0.0,0.0,0.0,0.0,0.0,0.0,0.0,0.0,0.0,0.0,0.0,0.0,0.0,0.0,0.0,0.0,0.0,0.0,0.0,0.0,0.0,0.0,0.0,0.0,0.0,0.0,0.0,0.0,0.0,0.0,0.0,0.0,0.0,0.0,0.0,0.0,0.0,0.0,0.0,0.0,0.0,0.0,0.0,0.0,0.0,0.0,0.0,0.0,0.0,0.0,0.0,0.0,0.0,0.0,0.0,0.0,0.0,0.0,0.0,0.0,0.0,0.0,-1.0032,-1.0595,-1.067,-1.0683,-1.0683,-1.0663,-1.0344,-0.9618,0.0,0.0,0.0,0.0,0.0,0.0,0.0,0.0,0.0,0.0,0.0,0.0,0.0,0.0,0.0,0.0,0.0,0.0,0.0,0.0,0.0,0.0,0.0,0.0,0.0,0.0,0.0,0.0,0.0,0.0,0.0,0.0,0.0,0.0,0.0,0.0,0.0,0.0,0.0,0.0,0.0,0.0,0.0,0.0,0.0,0.0,0.0,0.0,0.0,0.0,0.0,0.0,0.0,0.0,0.0,0.0,0.0,0.0,0.0,0.0,0.0,0.0,0.0,0.0,0.0,0.0,0.0,0.0,0.0,0.0,0.0,0.0,0.0,0.0,0.0,0.0,0.0,0.0,0.0,0.0,0.0,0.0,0.0,0.0,0.0,0.0,0.0,0.0,0.0,0.0,0.0,0.0,0.0,0.0,0.0,0.0,0.0,0.0,0.0,0.0,0.0,0.0,0.0,-0.9998,-1.0324,-1.0683,-1.0717,-1.0717,-1.0717,-1.0717,-1.0473,-0.9883,-0.9781,0.0,0.0,0.0,0.0,0.0,0.0,0.0,0.0,0.0,0.0,0.0,0.0,0.0,0.0,0.0,0.0,0.0,0.0,0.0,0.0,0.0,0.0,0.0,0.0,0.0,0.0,0.0,0.0,0.0,0.0,0.0,0.0,0.0,0.0,0.0,0.0,0.0,0.0,0.0,0.0,0.0,0.0,0.0,0.0,0.0,0.0,0.0,0.0,0.0,0.0,0.0,0.0,0.0,0.0,0.0,0.0,0.0,0.0,0.0,0.0,0.0,0.0,0.0,0.0,0.0,0.0,0.0,0.0,0.0,0.0,0.0,0.0,0.0,0.0,0.0,0.0,0.0,0.0,0.0,0.0,0.0,0.0,0.0,0.0,0.0,0.0,0.0,0.0,0.0,0.0,0.0,0.0,0.0,0.0,0.0,0.0,0.0,0.0,0.0,0.0,0.0,0.0,-1.0371,-1.0656,-1.0806,-1.0826,-1.0812,-1.0778,-1.0772,-1.0568,-1.008,-1.0053,0.0,0.0,0.0,0.0,0.0,0.0,0.0,0.0,0.0,0.0,0.0,0.0,0.0,0.0,0.0,0.0,0.0,0.0,0.0,0.0,0.0,0.0,0.0,0.0,0.0,0.0,0.0,0.0,0.0,0.0,0.0,0.0,0.0,0.0,0.0,0.0,0.0,0.0,0.0,0.0,0.0,0.0,0.0,0.0,0.0,0.0,0.0,0.0,0.0,0.0,0.0,0.0,0.0,0.0,0.0,0.0,0.0,0.0,0.0,0.0,0.0,0.0,0.0,0.0,0.0,0.0,0.0,0.0,0.0,0.0,0.0,0.0,0.0,0.0,0.0,0.0,0.0,0.0,0.0,0.0,0.0,0.0,0.0,0.0,0.0,0.0,0.0,0.0,0.0,0.0,0.0,0.0,0.0,0.0,0.0,0.0,0.0,0.0,0.0,0.0,0.0,0.0,-1.0555,-1.0975,-1.1118,-1.1131,-1.1077,-1.0941,-1.0934,-1.0683,-1.0086,-1.0053,0.0,0.0,0.0,0.0,0.0,0.0,0.0,0.0,0.0,0.0,0.0,0.0,0.0,0.0,0.0,0.0,0.0,0.0,0.0,0.0,0.0,0.0,0.0,0.0,0.0,0.0,0.0,0.0,0.0,0.0,0.0,0.0,0.0,0.0,0.0,0.0,0.0,0.0,0.0,0.0,0.0,0.0,0.0,0.0,0.0,0.0,0.0,0.0,0.0,0.0,0.0,0.0,0.0,0.0,0.0,0.0,0.0,0.0,0.0,0.0,0.0,0.0,0.0,0.0,0.0,0.0,0.0,0.0,0.0,0.0,0.0,0.0,0.0,0.0,0.0,0.0,0.0,0.0,0.0,0.0,0.0,0.0,0.0,0.0,0.0,0.0,0.0,0.0,0.0,0.0,0.0,0.0,0.0,0.0,0.0,0.0,0.0,0.0,0.0,0.0,0.0,0.0,-1.0493,-1.09,0.0,-1.1165,-1.1138,-1.1084,-1.1084,-1.0867,-1.0358,0.0,0.0,0.0,0.0,0.0,0.0,0.0,0.0,0.0,0.0,0.0,0.0,0.0,0.0,0.0,0.0,0.0,0.0,0.0,0.0,0.0,0.0,0.0,0.0,0.0,0.0,0.0,0.0,0.0,0.0,0.0,0.0,0.0,0.0,0.0,0.0,0.0,0.0,0.0,0.0,0.0,0.0,0.0,0.0,0.0,0.0,0.0,0.0,0.0,0.0,0.0,0.0,0.0,0.0,0.0,0.0,0.0,0.0,0.0,0.0,0.0,0.0,0.0,0.0,0.0,0.0,0.0,0.0,0.0,0.0,0.0,0.0,0.0,0.0,0.0,0.0,0.0,0.0,0.0,0.0,0.0,0.0,0.0,0.0,0.0,0.0,0.0,0.0,0.0,0.0,0.0,0.0,0.0,0.0,0.0,0.0,0.0,0.0,0.0,0.0,0.0,0.0,-1.0168,-1.0622,-1.1029,0.0,-1.1307,-1.1287,-1.124,-1.1233,-1.1023,-1.0521,0.0,0.0,0.0,0.0,0.0,0.0,0.0,0.0,0.0,0.0,0.0,0.0,0.0,0.0,0.0,0.0,0.0,0.0,0.0,0.0,0.0,0.0,0.0,0.0,0.0,0.0,0.0,0.0,0.0,0.0,0.0,0.0,0.0,0.0,0.0,0.0,0.0,0.0,0.0,0.0,0.0,0.0,0.0,0.0,0.0,0.0,0.0,0.0,0.0,0.0,0.0,0.0,0.0,0.0,0.0,0.0,0.0,0.0,0.0,0.0,0.0,0.0,0.0,0.0,0.0,0.0,0.0,0.0,0.0,0.0,0.0,0.0,0.0,0.0,0.0,0.0,0.0,0.0,0.0,0.0,0.0,0.0,0.0,0.0,0.0,0.0,0.0,0.0,0.0,0.0,0.0,0.0,0.0,0.0,0.0,0.0,0.0,0.0,0.0,0.0,0.0,0.0,-1.0473,-1.1016,-1.145,-1.1606,-1.1619,-1.1558,-1.1409,-1.1396,-1.1138,0.0,0.0,0.0,0.0,0.0,0.0,0.0,0.0,0.0,0.0,0.0,0.0,0.0,0.0,0.0,0.0,0.0,0.0,0.0,0.0,0.0,0.0,0.0,0.0,0.0,0.0,0.0,0.0,0.0,0.0,0.0,0.0,0.0,0.0,0.0,0.0,0.0,0.0,0.0,0.0,0.0,0.0,0.0,0.0,0.0,0.0,0.0,0.0,0.0,0.0,0.0,0.0,0.0,0.0,0.0,0.0,0.0,0.0,0.0,0.0,0.0,0.0,0.0,0.0,0.0,0.0,0.0,0.0,0.0,0.0,0.0,0.0,0.0,0.0,0.0,0.0,0.0,0.0,0.0,0.0,0.0,0.0,0.0,0.0,0.0,0.0,0.0,0.0,0.0,0.0,0.0,0.0,0.0,0.0,0.0,0.0,0.0,0.0,0.0,0.0,0.0,0.0,0.0,-1.0487,-1.1016,-1.145,-1.1606,-1.1619,-1.1599,-1.1558,-1.1552,-1.1294,-1.069,0.0,0.0,0.0,0.0,0.0,0.0,0.0,0.0,0.0,0.0,0.0,0.0,0.0,0.0,0.0,0.0,0.0,0.0,0.0,0.0,0.0,0.0,0.0,0.0,0.0,0.0,0.0,0.0,0.0,0.0,0.0,0.0,0.0,0.0,0.0,0.0,0.0,0.0,0.0,0.0,0.0,0.0,0.0,0.0,0.0,0.0,0.0,0.0,0.0,0.0,0.0,0.0,0.0,0.0,0.0,0.0,0.0,0.0,0.0,0.0,0.0,0.0,0.0,0.0,0.0,0.0,0.0,0.0,0.0,0.0,0.0,0.0,0.0,0.0,0.0,0.0,0.0,0.0,0.0,0.0,0.0,0.0,0.0,0.0,0.0,0.0,0.0,0.0,0.0,0.0,0.0,0.0,0.0,0.0,0.0,0.0,0.0,0.0,0.0,0.0,0.0,0.0,-1.0582,-1.1158,-1.1599,-1.1694,-1.1762,-1.1796,-1.1796,-1.1796,-1.1565,-1.1023,0.0,0.0,0.0,0.0,0.0,0.0,0.0,0.0,0.0,0.0,0.0,0.0,0.0,0.0,0.0,0.0,0.0,0.0,0.0,0.0,0.0,0.0,0.0,0.0,0.0,0.0,0.0,0.0,0.0,0.0,0.0,0.0,0.0,0.0,0.0,0.0,0.0,0.0,0.0,0.0,0.0,0.0,0.0,0.0,0.0,0.0,0.0,0.0,0.0,0.0,0.0,0.0,0.0,0.0,0.0,0.0,0.0,0.0,0.0,0.0,0.0,0.0,0.0,0.0,0.0,0.0,0.0,0.0,0.0,0.0,0.0,0.0,0.0,0.0,0.0,0.0,0.0,0.0,0.0,0.0,0.0,0.0,0.0,0.0,0.0,0.0,0.0,0.0,0.0,0.0,0.0,0.0,0.0,0.0,0.0,0.0,0.0,0.0,0.0,0.0,0.0,0.0,-1.0744,-1.1389,-1.185,-1.185,-1.1979,-1.206,-1.206,-1.206,-1.1877,-1.1443,0.0,0.0,0.0,0.0,0.0,0.0,0.0,0.0,0.0,0.0,0.0,0.0,0.0,0.0,0.0,0.0,0.0,0.0,0.0,0.0,0.0,0.0,0.0,0.0,0.0,0.0,0.0,0.0,0.0,0.0,0.0,0.0,0.0,0.0,0.0,0.0,0.0,0.0,0.0,0.0,0.0,0.0,0.0,0.0,0.0,0.0,0.0,0.0,0.0,0.0,0.0,0.0,0.0,0.0,0.0,0.0,0.0,0.0,0.0,0.0,-0.9503,0.0,0.0,0.0,0.0,0.0,0.0,0.0,0.0,0.0,0.0,0.0,0.0,0.0,0.0,0.0,0.0,0.0,0.0,0.0,0.0,0.0,0.0,0.0,0.0,0.0,0.0,0.0,0.0,0.0,0.0,0.0,0.0,0.0,0.0,0.0,0.0,0.0,0.0,0.0,0.0,0.0,-1.09,-1.1552,-1.2013,-1.2013,-1.204,-1.206,-1.206,-1.206,-1.1925,-1.1592,0.0,0.0,0.0,0.0,0.0,0.0,0.0,0.0,0.0,0.0,0.0,0.0,0.0,0.0,0.0,0.0,0.0,0.0,0.0,0.0,0.0,0.0,0.0,0.0,0.0,0.0,0.0,0.0,0.0,0.0,0.0,0.0,0.0,0.0,0.0,0.0,0.0,0.0,0.0,0.0,0.0,0.0,0.0,0.0,0.0,0.0,0.0,0.0,0.0,0.0,0.0,0.0,0.0,0.0,0.0,0.0,0.0,0.0,0.0,0.0,0.0,-0.968,0.0,0.0,0.0,0.0,0.0,0.0,0.0,0.0,0.0,0.0,0.0,0.0,0.0,0.0,0.0,0.0,0.0,0.0,0.0,0.0,0.0,0.0,0.0,0.0,0.0,0.0,0.0,0.0,0.0,0.0,0.0,0.0,0.0,0.0,0.0,0.0,0.0,0.0,0.0,0.0,-1.1043,-1.1708,-1.2169,-1.2169,-1.223,-1.2271,-1.2271,-1.2271,-1.2176,-1.1959,-1.1803,0.0,0.0,0.0,0.0,0.0,0.0,0.0,0.0,0.0,0.0,0.0,0.0,0.0,0.0,0.0,0.0,0.0,0.0,0.0,0.0,0.0,0.0,0.0,0.0,0.0,0.0,0.0,0.0,0.0,0.0,0.0,0.0,0.0,0.0,0.0,0.0,0.0,0.0,0.0,0.0,0.0,0.0,0.0,0.0,0.0,0.0,0.0,0.0,0.0,0.0,0.0,0.0,0.0,0.0,-1.0365,-1.0243,-1.0243,-1.0378,-1.0588,-1.0215,-1.01,-1.0161,0.0,0.0,0.0,0.0,0.0,0.0,0.0,0.0,0.0,0.0,0.0,0.0,0.0,0.0,0.0,0.0,0.0,0.0,0.0,0.0,0.0,0.0,0.0,0.0,0.0,-1.0934,-1.0995,0.0,0.0,0.0,0.0,0.0,0.0,0.0,0.0,0.0,0.0,0.0,0.0,-1.126,-1.1891,-1.2325,-1.2325,-1.2433,-1.2501,-1.2501,-1.2501,-1.2454,-1.2332,-1.2088,-1.1803,0.0,0.0,0.0,0.0,0.0,0.0,0.0,0.0,0.0,0.0,0.0,0.0,0.0,0.0,0.0,0.0,0.0,0.0,0.0,0.0,0.0,0.0,0.0,0.0,0.0,0.0,0.0,0.0,0.0,0.0,0.0,0.0,-0.9076,-0.9117,0.0,0.0,0.0,0.0,0.0,0.0,0.0,0.0,0.0,0.0,0.0,0.0,0.0,0.0,-0.9822,-1.0229,-1.0426,-1.0405,-1.0839,-1.1036,-1.1016,-1.1016,-1.1036,-1.107,-1.1009,0.0,-1.0643,-1.0751,0.0,0.0,0.0,0.0,0.0,0.0,0.0,0.0,0.0,0.0,0.0,0.0,0.0,0.0,0.0,0.0,0.0,0.0,0.0,0.0,0.0,0.0,-1.1138,-1.1274,-1.1321,-1.1362,0.0,-1.109,-1.0711,-1.067,0.0,0.0,0.0,0.0,0.0,0.0,0.0,0.0,-1.1708,-1.2169,-1.2474,-1.2474,-1.2488,-1.2501,-1.2501,-1.2501,-1.2494,-1.2474,-1.2433,-1.2223,-1.1789,-1.1619,0.0,0.0,0.0,0.0,0.0,0.0,0.0,0.0,0.0,0.0,0.0,0.0,0.0,0.0,0.0,0.0,0.0,0.0,0.0,0.0,0.0,0.0,0.0,0.0,0.0,0.0,0.0,0.0,0.0,-0.8981,-0.9184,-0.9273,-0.9205,-0.915,0.0,0.0,0.0,0.0,0.0,0.0,0.0,0.0,0.0,-1.0317,-1.0324,-1.0405,-1.0575,-1.0772,-1.0867,-1.0873,-1.107,-1.1165,-1.1165,-1.1165,-1.1165,-1.1165,-1.1253,-1.1219,-1.1097,-1.1077,-1.1029,-1.0962,0.0,0.0,0.0,0.0,0.0,-1.0772,-1.0921,0.0,0.0,0.0,0.0,0.0,0.0,0.0,0.0,0.0,0.0,0.0,0.0,0.0,0.0,-1.1735,-1.1769,-1.1789,-1.185,-1.166,-1.1402,0.0,-1.1097,-1.0995,-1.0677,0.0,0.0,0.0,0.0,0.0,-1.1932,-1.2277,-1.2501,-1.2501,-1.2501,-1.2501,-1.2501,-1.2501,-1.2501,-1.2501,-1.2501,-1.2413,-1.2216,-1.1904,-1.1552,0.0,0.0,0.0,0.0,0.0,0.0,0.0,0.0,0.0,0.0,0.0,0.0,0.0,0.0,0.0,0.0,0.0,0.0,0.0,0.0,0.0,0.0,0.0,0.0,0.0,0.0,0.0,0.0,-0.9184,-0.934,-0.9374,-0.9381,-0.9354,0.0,0.0,0.0,0.0,0.0,0.0,-1.0209,-1.0222,-1.0412,-1.0819,-1.0833,-1.0941,-1.1158,-1.1199,-1.1219,-1.1219,-1.126,-1.1301,-1.1335,-1.1335,-1.1355,-1.1396,-1.1511,-1.1565,-1.1545,-1.1355,-1.128,-1.1274,-1.124,-1.1219,-1.1219,-1.1219,-1.1151,-1.109,-1.1274,-1.1267,-1.1179,-1.1219,0.0,-1.1104,-1.1029,0.0,0.0,0.0,0.0,-1.1396,-1.166,0.0,-1.1918,-1.2033,-1.206,-1.206,-1.206,-1.206,-1.1965,0.0,-1.1572,-1.1457,-1.1097,0.0,0.0,0.0,0.0,-1.1972,-1.2162,-1.2372,-1.2508,-1.2515,-1.2515,-1.2522,-1.2528,-1.2528,-1.2522,-1.2515,-1.2515,-1.2508,-1.2501,-1.2182,-1.1952,-1.183,0.0,0.0,0.0,0.0,0.0,0.0,0.0,0.0,0.0,0.0,0.0,0.0,0.0,0.0,0.0,0.0,0.0,0.0,0.0,0.0,0.0,0.0,0.0,0.0,0.0,0.0,0.0,0.0,0.0,-0.9415,-0.9747,0.0,0.0,0.0,0.0,-1.0005,-1.0032,-1.0229,-1.0663,-1.0683,-1.0826,-1.1131,-1.1138,-1.1145,-1.1165,-1.1307,-1.1382,-1.1382,-1.1525,-1.1667,-1.1796,-1.1796,-1.1877,-1.202,-1.2026,-1.2026,-1.2006,-1.1714,-1.1599,-1.1586,-1.1436,-1.1382,-1.1382,-1.1382,-1.1375,-1.1409,-1.1694,-1.1789,-1.1809,-1.1959,-1.1816,-1.1606,-1.1735,-1.1579,0.0,0.0,-1.1789,-1.1837,-1.1999,-1.2047,-1.2054,-1.206,-1.206,-1.206,-1.206,-1.206,-1.2067,0.0,-1.1918,-1.1884,-1.2052,0.0,-1.1334,-1.1457,-1.1782,-1.2045,-1.2488,-1.2515,-1.2515,-1.2549,-1.2549,-1.2562,-1.244,-1.244,-1.2427,-1.2556,-1.2549,-1.2535,-1.2501,-1.2481,-1.2264,-1.1837,-1.1809,0.0,0.0,0.0,0.0,0.0,0.0,0.0,0.0,0.0,0.0,0.0,0.0,0.0,0.0,0.0,0.0,0.0,0.0,0.0,0.0,0.0,0.0,0.0,0.0,0.0,0.0,0.0,0.0,-0.9822,-1.0039,0.0,-1.0053,-1.0256,-1.0419,-1.0473,-1.0656,-1.088,-1.1138,-1.1151,-1.1246,-1.145,-1.1545,-1.1592,-1.1592,-1.1748,-1.1823,-1.1823,-1.1877,-1.1932,-1.1979,-1.1979,-1.2013,-1.206,-1.206,-1.206,-1.2054,-1.1952,-1.1904,-1.1898,-1.1843,-1.1823,-1.1823,-1.1823,-1.1823,-1.1837,-1.1945,-1.1979,-1.1986,-1.2047,-1.1993,-1.1911,-1.1965,-1.1904,-1.1843,-1.1952,-1.2054,-1.2135,-1.2196,-1.2291,-1.2379,-1.2379,-1.2393,-1.2413,-1.2413,-1.2413,-1.2266,-1.2293,-1.2186,-1.1277,-0.8725,-0.8214,-0.796,-0.7712,-0.7955,-0.931,-1.2096,-1.2576,-1.2569,-1.2427,-1.0036,-0.8453,-0.8462,-0.8462,-0.8462,-0.8453,-1.0987,-1.2569,-1.2535,-1.2535,-1.2447,-1.2264,-1.2264,-1.187,0.0,0.0,0.0,0.0,0.0,0.0,0.0,0.0,0.0,0.0,0.0,0.0,0.0,0.0,0.0,0.0,0.0,0.0,0.0,0.0,0.0,0.0,0.0,0.0,0.0,0.0,-1.0107,-1.0053,-1.0317,-1.0487,-1.0432,-1.0697,-1.0894,-1.0941,-1.1131,-1.1328,-1.1531,-1.1538,-1.1613,-1.1762,-1.1857,-1.1911,-1.1911,-1.2013,-1.206,-1.206,-1.206,-1.2088,-1.2142,-1.2142,-1.2169,-1.221,-1.221,-1.221,-1.221,-1.221,-1.221,-1.2203,-1.2101,-1.206,-1.206,-1.206,-1.206,-1.2067,-1.2121,-1.2169,-1.221,-1.221,-1.221,-1.221,-1.221,-1.221,-1.221,-1.2223,-1.2291,-1.2366,-1.2393,-1.2474,-1.2083,-1.0814,-1.0353,-1.037,-1.037,-1.037,-1.0849,-1.2155,-1.2367,-1.052,-0.5049,-0.4181,-0.4042,-0.3655,-0.3859,-0.5153,-0.7955,-0.9553,-1.1005,-1.2298,-1.0057,-0.7209,-0.4383,-0.4197,-0.419,-0.422,-0.8092,-1.044,-1.0336,-1.167,-1.2239,-1.2366,-1.2359,-1.2033,-1.1389,0.0,0.0,0.0,0.0,0.0,0.0,0.0,0.0,0.0,0.0,0.0,0.0,0.0,0.0,0.0,0.0,0.0,0.0,0.0,0.0,0.0,0.0,0.0,-0.9876,-1.0107,-1.0249,-1.01,-1.0602,-1.0907,-1.0758,-1.1002,-1.124,-1.1396,-1.1402,-1.1531,-1.1823,-1.1837,-1.1904,-1.2054,-1.2067,-1.2067,-1.2067,-1.2074,-1.2074,-1.2074,-1.2074,-1.2155,-1.2298,-1.2298,-1.2372,-1.2501,-1.2501,-1.2501,-1.2501,-1.2501,-1.2501,-1.2474,-1.2189,-1.2074,-1.2074,-1.2074,-1.2074,-1.2094,-1.225,-1.2386,-1.2501,-1.2501,-1.2501,-1.2508,-1.2508,-1.2515,-1.2522,-1.2556,-1.238,-1.2367,-1.2434,-1.2427,-1.1448,-0.7509,-0.6257,-0.6101,-0.6101,-0.6257,-0.7521,-1.1673,-1.2481,-0.9766,-0.1413,0.0,0.0,0.0,0.0,0.0,0.0,-0.3576,-0.7686,-1.1679,-1.2161,-0.8816,-0.0628,0.0,0.0,0.0,-0.3837,-0.6125,-0.6098,-0.9813,-1.1828,-1.1971,-1.2081,-1.1979,-1.183,0.0,0.0,0.0,0.0,0.0,0.0,0.0,0.0,0.0,0.0,0.0,0.0,0.0,0.0,0.0,0.0,0.0,0.0,0.0,0.0,0.0,0.0,-1.0371,-1.0181,-1.0507,-1.0751,-1.0711,-1.1036,-1.1253,-1.1212,-1.1382,-1.1552,-1.1701,-1.1708,-1.1796,-1.1986,-1.1999,-1.202,-1.206,-1.2169,-1.223,-1.223,-1.2332,-1.2379,-1.2379,-1.2379,-1.2406,-1.244,-1.244,-1.2467,-1.2501,-1.2501,-1.2501,-1.2501,-1.2528,-1.2542,-1.2528,-1.242,-1.2379,-1.2379,-1.2379,-1.2379,-1.2393,-1.2488,-1.2508,-1.2508,-1.2562,-1.2562,-1.2562,-1.2541,-1.2423,-1.2423,-1.243,-1.0324,-0.8702,-1.1666,-1.2454,-1.2141,-1.1023,-0.6121,-0.1725,-0.1725,-0.4081,-0.7554,-1.171,-1.2521,-0.9792,-0.1413,0.0,0.0,0.0,0.0,0.0,0.0,-0.0959,-0.2239,-0.3303,-0.3454,-0.2512,-0.0157,0.0,0.0,0.0,-0.112,-0.1751,-0.1743,-0.8212,-1.1791,-1.1959,-1.2258,-1.2206,0.0,0.0,0.0,0.0,0.0,0.0,0.0,0.0,0.0,0.0,0.0,0.0,0.0,0.0,0.0,0.0,0.0,0.0,0.0,0.0,0.0,0.0,-1.037,-1.0765,-1.0697,-1.0887,-1.1063,-1.1124,-1.1287,-1.1443,-1.1565,-1.1653,-1.1769,-1.1918,-1.1925,-1.1993,-1.2149,-1.2155,-1.2182,-1.2244,-1.2332,-1.2379,-1.2379,-1.2474,-1.2522,-1.2522,-1.2535,-1.2542,-1.2542,-1.2542,-1.2542,0.0,-1.2542,-1.2542,-1.2549,-1.2569,-1.1491,0.0,0.0,0.0,0.0,0.0,-1.1479,-1.0169,-1.1861,-1.1384,-1.0241,-1.1886,-1.1276,-0.9866,-0.9951,-0.9977,-1.0302,-1.1955,-0.9497,-0.64,-0.7133,-0.9835,-1.1591,-0.8033,-0.3611,0.0,0.0,-0.1893,-0.4436,-0.6824,0.0,0.0,-0.0797,0.0,0.0,0.0,0.0,0.0,0.0,0.0,0.0,0.0,0.0,0.0,0.0,0.0,0.0,0.0,0.0,0.0,0.0,-0.44,0.0,0.0,0.0,0.0,0.0,0.0,0.0,0.0,-1.1518,-1.1436,0.0,0.0,0.0,0.0,0.0,0.0,0.0,0.0,0.0,0.0,0.0,0.0,0.0,0.0,0.0,0.0,-1.0257,-1.0392,-1.0556,-1.0544,-1.0855,-1.1248,-1.143,-1.1552,-1.1816,-1.1857,-1.1932,-1.2088,-1.2094,-1.2162,-1.2318,0.0,0.0,0.0,0.0,-1.2515,-1.2515,-1.2542,-1.2238,-1.1765,-1.1791,-1.1804,-1.1804,-1.1804,-1.1804,-1.1804,-1.1804,-1.1804,-1.181,-1.2304,-0.9987,-0.6702,-1.0296,-1.1842,-1.1848,-1.2318,-0.9861,0.0,0.0,0.0,0.0,-1.0094,-0.9186,-0.6805,-0.5838,-0.5515,-0.6334,-1.013,-0.8473,-0.4695,-0.0963,-0.5454,-0.9143,-0.174,0.0,0.0,0.0,0.0,0.0,0.0,0.0,0.0,0.0,0.0,0.0,0.0,0.0,0.0,0.0,0.0,0.0,0.0,0.0,0.0,0.0,0.0,0.0,0.0,0.0,0.0,0.0,0.0,-0.1537,-0.4699,-0.8653,-1.1219,-1.2556,-1.2522,-1.2508,-1.2488,-1.1687,-1.1525,0.0,0.0,0.0,0.0,0.0,0.0,0.0,0.0,0.0,0.0,0.0,0.0,0.0,0.0,0.0,-1.018,-0.8173,-0.6528,-0.6528,-0.6645,-0.8005,-1.0902,-1.1385,-1.155,-1.161,-1.1999,-1.2128,-1.2146,-1.2132,-1.2199,-1.238,-1.2387,0.0,-1.2427,-1.2427,-1.2427,-1.2427,-1.2434,-1.0837,-0.7509,0.0,0.0,-0.7513,-0.7513,-0.7513,-0.7513,-0.7513,-0.7513,-0.7838,-1.1142,-0.9982,-0.633,-0.7259,-0.7525,-0.7957,-1.1332,-0.9879,-0.5953,-0.3396,-0.4042,-0.5811,-0.3237,-0.6496,-0.9962,-0.3287,-0.1154,0.0,-0.2145,-0.1814,-0.0986,-0.0163,-0.1143,-0.1967,-0.0324,0.0,0.0,0.0,0.0,0.0,0.0,0.0,0.0,0.0,0.0,0.0,0.0,0.0,0.0,0.0,0.0,0.0,0.0,0.0,0.0,0.0,0.0,0.0,0.0,0.0,0.0,0.0,0.0,-0.032,-0.1103,-0.189,-0.5661,-1.244,-1.2562,-1.2542,-1.2535,-1.2338,-1.2291,0.0,0.0,0.0,0.0,0.0,0.0,0.0,0.0,0.0,0.0,0.0,-0.9666,-0.9594,0.0,-0.7983,-1.0141,-0.9389,-0.7814,-0.568,-0.5599,-0.6503,-0.8314,-0.8592,-0.8711,-0.8765,-0.8809,-0.9971,-1.2159,-1.0417,-0.9336,-0.9407,-0.9412,-0.9412,-0.9412,-0.9412,-0.9412,-0.9412,-1.1498,-1.1498,-0.9427,-0.517,-0.3133,-0.3133,-0.3133,-0.3133,-0.3133,-0.3152,-0.3173,-0.3676,-0.9876,-0.8806,-0.315,-0.3178,-0.3134,-0.3387,-0.5426,-0.4944,-0.2787,-0.0665,-0.1334,-0.283,-0.0667,-0.2848,-0.5392,-0.1186,0.0,0.0,0.0,0.0,0.0,0.0,0.0,0.0,0.0,0.0,0.0,0.0,0.0,0.0,0.0,0.0,0.0,0.0,0.0,0.0,0.0,0.0,0.0,0.0,0.0,0.0,0.0,0.0,0.0,0.0,0.0,0.0,0.0,0.0,0.0,0.0,0.0,0.0,0.0,0.0,-0.2064,-0.6322,-0.8319,-1.0503,-1.242,-1.2562,-1.2535,0.0,0.0,0.0,0.0,0.0,0.0,0.0,0.0,-0.9808,-0.9888,-0.9282,-0.898,-0.9765,-0.7693,-0.6414,-0.8321,-0.9034,-0.8103,-0.476,-0.4489,-0.4646,-0.4628,-0.4665,-0.4709,-0.4604,-0.4614,-0.6193,-0.974,-0.8471,-0.6733,-0.5165,-0.5008,-0.5008,-0.5008,-0.5008,-0.5008,-0.5008,-0.8346,-1.0117,-0.996,-0.3159,0.0,0.0,0.0,0.0,0.0,0.0,0.0,-0.0494,-0.7304,-0.6151,0.0,0.0,0.0,0.0,0.0,0.0,0.0,0.0,0.0,0.0,0.0,0.0,0.0,0.0,0.0,0.0,0.0,0.0,0.0,0.0,0.0,0.0,0.0,0.0,0.0,0.0,0.0,0.0,0.0,0.0,0.0,0.0,0.0,0.0,0.0,0.0,0.0,0.0,0.0,0.0,0.0,0.0,0.0,0.0,0.0,0.0,0.0,0.0,0.0,0.0,0.0,0.0,0.0,0.0,0.0,-0.0,-0.348,-0.7574,-1.2541,-1.1698,-1.1804,-0.953,-0.9571,0.0,-1.0086,-1.008,-1.0035,0.0,0.0,-1.0313,-1.0496,-0.8025,-0.681,-0.9959,-1.0297,-0.8036,-0.2179,-0.1325,-0.1188,-0.0744,-0.0606,-0.0615,-0.0614,-0.0615,-0.0616,-0.0616,-0.0621,-0.0781,-0.1412,-0.7863,-0.8494,-0.1099,-0.0628,-0.0628,-0.0628,-0.0628,-0.0628,-0.0628,-0.1111,-0.1436,-0.1436,-0.0484,0.0,0.0,0.0,0.0,0.0,0.0,0.0,-0.0,-0.1026,-0.086,0.0,0.0,0.0,0.0,0.0,0.0,0.0,0.0,0.0,0.0,0.0,0.0,0.0,0.0,0.0,0.0,0.0,0.0,0.0,0.0,0.0,0.0,0.0,0.0,0.0,0.0,0.0,0.0,0.0,0.0,0.0,0.0,0.0,0.0,0.0,0.0,0.0,0.0,0.0,0.0,0.0,0.0,0.0,0.0,0.0,0.0,0.0,0.0,0.0,0.0,0.0,0.0,0.0,0.0,0.0,-0.0,-0.0485,-0.4849,-1.2379,-0.865,-0.9026,-0.9698,0.0,0.0,0.0,-1.0417,-1.0333,-1.0334,-0.8649,-0.6706,-0.4788,-0.6665,-0.77,-0.491,-0.4517,-0.352,0.0,0.0,0.0,0.0,0.0,0.0,0.0,0.0,0.0,0.0,0.0,0.0,0.0,-0.3297,-0.3768,-0.0157,0.0,0.0,0.0,0.0,0.0,0.0,0.0,0.0,0.0,0.0,0.0,0.0,0.0,0.0,0.0,0.0,0.0,0.0,0.0,0.0,0.0,0.0,0.0,0.0,0.0,0.0,0.0,0.0,0.0,0.0,0.0,0.0,0.0,0.0,0.0,0.0,0.0,0.0,0.0,0.0,0.0,0.0,0.0,0.0,0.0,0.0,0.0,0.0,0.0,0.0,0.0,0.0,0.0,0.0,0.0,0.0,0.0,0.0,0.0,0.0,0.0,0.0,0.0,0.0,0.0,0.0,0.0,0.0,0.0,0.0,0.0,0.0,0.0,0.0,0.0,0.0,0.0,-0.1818,-0.5262,-0.5927,-0.7185,-0.877,0.0,0.0,-0.9029,-0.9137,-0.9359,-1.0077,-0.8398,-0.5471,-0.1003,-0.4174,-0.6221,-0.1024,0.0,0.0,0.0,0.0,0.0,0.0,0.0,0.0,0.0,0.0,0.0,0.0,0.0,0.0,0.0,0.0,0.0,0.0,0.0,0.0,0.0,0.0,0.0,0.0,0.0,0.0,0.0,0.0,0.0,0.0,0.0,0.0,0.0,0.0,0.0,0.0,0.0,0.0,0.0,0.0,0.0,0.0,0.0,0.0,0.0,0.0,0.0,0.0,0.0,0.0,0.0,0.0,0.0,0.0,0.0,0.0,0.0,0.0,0.0,0.0,0.0,0.0,0.0,0.0,0.0,0.0,0.0,0.0,0.0,0.0,0.0,0.0,0.0,0.0,0.0,0.0,0.0,0.0,0.0,0.0,0.0,0.0,0.0,0.0,0.0,0.0,0.0,0.0,0.0,0.0,0.0,0.0,0.0,0.0,0.0,0.0,-0.0,-0.3208,-0.4535,-0.6035,-0.5006,-0.5017,-0.5027,-0.5302,-0.6571,-1.0643,-1.1424,-0.9205,-0.1604,-0.0146,-0.0293,-0.0,0.0,0.0,0.0,0.0,0.0,0.0,0.0,0.0,0.0,0.0,0.0,0.0,0.0,0.0,0.0,0.0,0.0,0.0,0.0,0.0,0.0,0.0,0.0,0.0,0.0,0.0,0.0,0.0,0.0,0.0,0.0,0.0,0.0,0.0,0.0,0.0,0.0,0.0,0.0,0.0,0.0,0.0,0.0,0.0,0.0,0.0,0.0,0.0,0.0,0.0,0.0,0.0,0.0,0.0,0.0,0.0,0.0,0.0,0.0,0.0,0.0,0.0,0.0,0.0,0.0,0.0,0.0,0.0,0.0,0.0,0.0,0.0,0.0,0.0,0.0,0.0,0.0,0.0,0.0,0.0,0.0,0.0,0.0,0.0,0.0,0.0,0.0,0.0,0.0,0.0,0.0,0.0,0.0,0.0,0.0,0.0,-0.0,-0.0172,-0.0171,-0.877,-0.5162,-0.1634,-0.1677,-0.1712,-0.2173,-0.3641,-0.3939,-0.321,-0.0584,0.0,0.0,0.0,0.0,0.0,0.0,0.0,0.0,0.0,0.0,0.0,0.0,0.0,0.0,0.0,0.0,0.0,0.0,0.0,0.0,0.0,0.0,0.0,0.0,0.0,0.0,0.0,0.0,0.0,0.0,0.0,0.0,0.0,0.0,0.0,0.0,0.0,0.0,0.0,0.0,0.0,0.0,0.0,0.0,0.0,0.0,0.0,0.0,0.0,0.0,0.0,0.0,0.0,0.0,0.0,0.0,0.0,0.0,0.0,0.0,0.0,0.0,0.0,0.0,0.0,0.0,0.0,0.0,0.0,0.0,0.0,0.0,0.0,0.0,0.0,0.0,0.0,0.0,0.0,0.0,0.0,0.0,0.0,0.0,0.0,0.0,0.0,0.0,0.0,0.0,0.0,0.0,0.0,0.0,0.0,0.0,0.0,0.0,0.0,0.0,0.0,0.0,-0.6575,-0.5288,-0.3203,-0.0711,0.0,0.0,0.0,0.0,0.0,0.0,0.0,0.0,0.0,0.0,0.0,0.0,0.0,0.0,0.0,0.0,0.0,0.0,0.0,0.0,0.0,0.0,0.0,0.0,0.0,0.0,0.0,0.0,0.0,0.0,0.0,0.0,0.0,0.0,0.0,0.0,0.0,0.0,0.0,0.0,0.0,0.0,0.0,0.0,0.0,0.0,0.0,0.0,0.0,0.0,0.0,0.0,0.0,0.0,0.0,0.0,0.0,0.0,0.0,0.0,0.0,0.0,0.0,0.0,0.0,0.0,0.0,0.0,0.0,0.0,0.0,0.0,0.0,0.0,0.0,0.0,0.0,0.0,0.0,0.0,0.0,0.0,0.0,0.0,0.0,0.0,0.0,0.0,0.0,0.0,0.0,0.0,0.0,0.0,0.0,0.0,0.0,0.0,0.0,0.0,0.0,0.0,0.0,0.0,0.0,0.0,0.0,0.0,0.0,-0.4959,-0.8645,-0.2142,-0.029,0.0,0.0,0.0,0.0,0.0,0.0,0.0,0.0,0.0,0.0,0.0,0.0,0.0,0.0,0.0,0.0,0.0,0.0,0.0,0.0,0.0,0.0,0.0,0.0,0.0,0.0,0.0,0.0,0.0,0.0,0.0,0.0,0.0,0.0,0.0,0.0,0.0,0.0,0.0,0.0,0.0,0.0,0.0,0.0,0.0,0.0,0.0,0.0,0.0,0.0,0.0,0.0,0.0,0.0,0.0,0.0,0.0,0.0,0.0,0.0,0.0,0.0,0.0,0.0,0.0,0.0,0.0,0.0,0.0,0.0,0.0,0.0,0.0,0.0,0.0,0.0,0.0,0.0,0.0,0.0,0.0,0.0,0.0,0.0,0.0,0.0,0.0,0.0,0.0,0.0,0.0,0.0,0.0,0.0,0.0,0.0,0.0,0.0,0.0,0.0,0.0,0.0,0.0,0.0,0.0,0.0,0.0,0.0,-0.1383,-0.3573,-0.7098,-0.3988,0.0,0.0,0.0,0.0,0.0,0.0,0.0,0.0,0.0,0.0,0.0,0.0,0.0,0.0,0.0,0.0,0.0,0.0,0.0,0.0,0.0,0.0,0.0,0.0,0.0,0.0,0.0,0.0,0.0,0.0,0.0,0.0,0.0,0.0,0.0,0.0,0.0,0.0,0.0,0.0,0.0,0.0,0.0,0.0,0.0,0.0,0.0,0.0,0.0,0.0,0.0,0.0,0.0,0.0,0.0,0.0,0.0,0.0,0.0,0.0,0.0,0.0,0.0,0.0,0.0,0.0,0.0,0.0,0.0,0.0,0.0,0.0,0.0,0.0,0.0,0.0,0.0,0.0,0.0,0.0,0.0,0.0,0.0,0.0,0.0,0.0,0.0,0.0,0.0,0.0,0.0,0.0,0.0,0.0,0.0,0.0,0.0,0.0,0.0,0.0,0.0,0.0,0.0,0.0,0.0,0.0,0.0,0.0,0.0,-0.103,-0.5037,-0.2999,0.0,0.0,0.0,0.0,0.0,0.0,0.0,0.0,0.0,0.0,0.0,0.0,0.0,0.0,0.0,0.0,0.0,0.0,0.0,0.0,0.0,0.0,0.0,0.0,0.0,0.0,0.0,0.0,0.0,0.0,0.0,0.0,0.0,0.0,0.0,0.0,0.0,0.0,0.0,0.0,0.0,0.0,0.0,0.0,0.0,0.0,0.0,0.0,0.0,0.0,0.0,0.0,0.0,0.0,0.0,0.0,0.0,0.0,0.0,0.0,0.0,0.0,0.0,0.0,0.0,0.0,0.0,0.0,0.0,0.0,0.0,0.0,0.0,0.0,0.0,0.0,0.0,0.0,0.0,0.0,0.0,0.0,0.0,0.0,0.0,0.0,0.0,0.0,0.0,0.0,0.0,0.0,0.0,0.0,0.0,0.0,0.0,0.0,0.0,0.0,0.0,0.0,0.0,0.0,0.0,0.0,0.0,0.0,0.0,0.0,0.0,0.0,0.0,0.0,0.0,0.0,0.0,0.0,0.0,0.0,0.0,0.0,0.0,0.0,0.0,0.0,0.0,0.0,0.0,0.0,0.0,0.0,0.0,0.0,0.0,0.0,0.0,0.0,0.0,0.0,0.0,0.0,0.0,0.0,0.0,0.0,0.0,0.0,0.0,0.0,0.0,0.0,0.0,0.0,0.0,0.0,0.0,0.0,0.0,0.0,0.0,0.0,0.0,0.0,0.0,0.0,0.0,0.0,0.0,0.0,0.0,0.0,0.0,0.0,0.0,0.0,0.0,0.0,0.0,0.0,0.0,0.0,0.0,0.0,0.0,0.0,0.0,0.0,0.0,0.0,0.0,0.0,0.0,0.0,0.0,0.0,0.0,0.0,0.0,0.0,0.0,0.0,0.0,0.0,0.0,0.0,0.0,0.0,0.0,0.0,0.0,0.0,0.0,0.0,0.0,0.0,0.0,0.0,0.0,0.0,0.0,0.0,0.0,0.0,0.0,0.0,0.0,0.0,0.0,0.0,0.0,0.0,0.0,0.0,0.0,0.0,0.0,0.0,0.0,0.0,0.0,0.0,0.0,0.0,0.0,0.0,0.0,0.0,0.0,0.0,0.0,0.0,0.0,0.0,0.0,0.0,0.0,0.0,0.0,0.0,0.0,0.0,0.0,0.0,0.0,0.0,0.0,0.0,0.0,0.0,0.0,0.0,0.0,0.0,0.0,0.0,0.0,0.0,0.0,0.0,0.0,0.0,0.0,0.0,0.0,0.0,0.0,0.0,0.0,0.0,0.0,0.0,0.0,0.0,0.0,0.0,0.0,0.0,0.0,0.0,0.0,0.0,0.0,0.0,0.0,0.0,0.0,0.0,0.0,0.0,0.0,0.0,0.0,0.0,0.0,0.0,0.0,0.0,0.0,0.0,0.0,0.0,0.0,0.0,0.0,0.0,0.0,0.0,0.0,0.0,0.0,0.0,0.0,0.0,0.0,0.0,0.0,0.0,0.0,0.0,0.0,0.0,0.0,0.0,0.0,0.0,0.0,0.0,0.0,0.0,0.0,0.0,0.0,0.0,0.0,0.0,0.0,0.0,0.0,0.0,0.0,0.0,0.0,0.0,0.0,0.0,0.0,0.0,0.0,0.0,0.0,0.0,0.0,0.0,0.0,0.0,0.0,0.0,0.0,0.0,0.0,0.0,0.0,0.0,0.0,0.0,0.0,0.0,0.0,0.0,0.0,0.0,0.0,0.0,0.0,0.0,0.0,0.0,0.0,0.0,0.0,0.0,0.0,0.0,0.0,0.0,0.0,0.0,0.0,0.0,0.0,0.0,0.0,0.0,0.0,0.0,0.0,0.0,0.0,0.0,0.0,0.0,0.0,0.0,0.0,0.0,0.0,0.0,0.0,0.0,0.0,0.0,0.0,0.0,0.0,0.0,0.0,0.0,0.0,0.0,0.0,0.0,0.0,0.0,0.0,0.0,0.0,0.0,0.0,0.0,0.0,0.0,0.0,0.0,0.0,0.0,0.0,0.0,0.0,0.0,0.0,0.0,0.0,0.0,0.0,0.0,0.0,0.0,0.0,0.0,0.0,0.0,0.0,0.0,0.0,0.0,0.0,0.0,0.0,0.0,0.0,0.0,0.0,0.0,0.0,0.0,0.0,0.0,0.0,0.0,0.0,0.0,0.0,0.0,0.0,0.0,0.0,0.0,0.0,0.0,0.0,0.0,0.0,0.0,0.0,0.0,0.0,0.0,0.0,0.0,0.0,0.0,0.0,0.0,0.0,0.0,0.0,0.0,0.0,0.0,0.0,0.0,0.0,0.0,0.0,0.0,0.0,0.0,0.0,0.0,0.0,0.0,0.0,0.0,0.0,0.0,0.0,0.0,0.0,0.0,0.0,0.0,0.0,0.0,0.0,0.0,0.0,0.0,0.0,0.0,0.0,0.0,0.0,0.0,0.0,0.0,0.0,0.0,0.0,0.0,0.0,0.0,0.0,0.0,0.0,0.0,0.0,0.0,0.0,0.0,0.0,0.0,0.0,0.0,0.0,0.0,0.0,0.0,0.0,0.0,0.0,0.0,0.0,0.0,0.0,0.0,0.0,0.0,0.0,0.0,0.0,0.0,0.0,0.0,0.0,0.0,0.0,0.0,0.0,0.0,0.0,0.0,0.0,0.0,0.0,0.0,0.0,0.0,0.0,0.0,0.0,0.0,0.0,0.0,0.0,0.0,0.0,0.0,0.0,0.0,0.0,0.0,0.0,0.0,0.0,0.0,0.0,0.0,0.0,0.0,0.0,0.0,0.0,0.0,0.0,0.0,0.0,0.0,0.0,0.0,0.0,0.0,0.0,0.0,0.0,0.0,0.0,0.0,0.0,0.0,0.0,0.0,0.0,0.0,0.0,0.0,0.0,0.0,0.0,0.0,0.0,0.0,0.0,0.0,0.0,0.0,0.0,0.0,0.0,0.0,0.0,0.0,0.0,0.0,0.0,0.0,0.0,0.0,0.0,0.0,0.0,0.0,0.0,0.0,0.0,0.0,0.0,0.0,0.0,0.0,0.0,0.0,0.0,0.0,0.0,0.0,0.0,0.0,0.0,0.0,0.0,0.0,0.0,0.0,0.0,0.0,0.0,0.0,0.0,0.0,0.0,0.0,0.0,0.0,0.0,0.0,0.0,0.0,0.0,0.0,0.0,0.0,0.0,0.0,0.0,0.0,0.0,0.0,0.0,0.0,0.0,0.0,0.0,0.0,0.0,0.0,0.0,0.0,0.0,0.0,0.0,0.0,0.0,0.0,0.0,0.0,0.0,0.0,0.0,0.0,0.0,0.0,0.0,0.0,0.0,0.0,0.0,0.0,0.0,0.0,0.0,0.0,0.0,0.0,0.0,0.0,0.0,0.0,0.0,0.0,0.0,0.0,0.0,0.0,0.0,0.0,0.0,0.0,0.0,0.0,0.0,0.0,0.0,0.0,0.0,0.0,0.0,0.0,0.0,0.0,0.0,0.0,0.0,0.0,0.0,0.0,0.0,0.0,0.0,0.0,0.0,0.0,0.0,0.0,0.0,0.0,0.0,0.0,0.0,0.0,0.0,0.0,0.0,0.0,0.0,0.0,0.0,0.0,0.0,0.0,0.0,0.0,0.0,0.0,0.0,0.0,0.0,0.0,0.0,0.0,0.0,0.0,0.0,0.0,0.0,0.0,0.0,0.0,0.0,0.0,0.0,0.0,0.0,0.0,0.0,0.0,0.0,0.0,0.0,0.0,0.0,0.0,0.0,0.0,0.0,0.0,0.0,0.0,0.0,0.0,0.0,0.0,0.0,0.0,0.0,0.0,0.0,0.0,0.0,0.0,0.0,0.0,0.0,0.0,0.0,0.0,0.0,0.0,0.0,0.0,0.0,0.0,0.0,0.0,0.0,0.0,0.0,0.0,0.0,0.0,0.0,0.0,0.0,0.0,0.0,0.0,0.0,0.0,0.0,0.0,0.0,0.0,0.0,0.0,0.0,0.0,0.0,0.0,0.0,0.0,0.0,0.0,0.0,0.0,0.0,0.0,0.0,0.0,0.0,0.0,0.0,0.0,0.0,0.0,0.0,0.0,0.0,0.0,0.0,0.0,0.0,0.0,0.0,0.0,0.0,0.0,0.0,0.0,0.0,0.0,0.0,0.0,0.0,0.0,0.0,0.0,0.0,0.0,0.0,0.0,0.0,0.0,0.0,0.0,0.0,0.0,0.0,0.0,0.0,0.0,0.0,0.0,0.0,0.0,0.0,0.0,0.0,0.0,0.0,0.0,0.0,0.0,0.0,0.0,0.0,0.0,0.0,0.0,0.0,0.0,0.0,0.0,0.0,0.0,0.0,0.0,0.0,0.0,0.0,0.0,0.0,0.0,0.0,0.0,0.0,0.0,0.0,0.0,0.0,0.0,0.0,0.0,0.0,0.0,0.0,0.0,0.0,0.0,0.0,0.0,0.0,0.0,0.0,0.0,0.0,0.0,0.0,0.0,0.0,0.0,0.0,0.0,0.0,0.0,0.0,0.0,0.0,0.0,0.0,0.0,0.0,0.0,0.0,0.0,0.0,0.0,0.0,0.0,0.0,0.0,0.0,0.0,0.0,0.0,0.0,0.0,0.0,0.0,0.0,0.0,0.0,0.0,0.0,0.0,0.0,0.0,0.0,0.0,0.0,0.0,0.0,0.0,0.0,0.0,0.0,0.0,0.0,0.0,0.0,0.0,0.0,0.0,0.0,0.0,0.0,0.0,0.0,0.0,0.0,0.0,0.0,0.0,0.0,0.0,0.0,0.0,0.0,0.0,0.0,0.0,0.0,0.0,0.0,0.0,0.0,0.0,0.0,0.0,0.0,0.0,0.0,0.0,0.0,0.0,0.0,0.0,0.0,0.0,0.0,0.0,0.0,0.0,0.0,0.0,0.0,0.0,0.0,0.0,0.0,0.0,0.0,0.0,0.0,0.0,0.0,0.0,0.0,0.0,0.0,0.0,0.0,0.0,0.0,0.0,0.0,0.0,0.0,0.0,0.0,0.0,0.0,0.0,0.0,0.0,0.0,0.0,0.0,0.0,0.0,0.0,0.0,0.0,0.0,0.0,0.0,0.0,0.0,0.0,0.0,0.0,0.0,0.0,0.0,0.0,0.0,0.0,0.0,0.0,0.0,0.0,0.0,0.0,0.0,0.0,0.0,0.0,0.0,0.0,0.0,0.0,0.0,0.0,0.0,0.0,0.0,0.0,0.0,0.0,0.0,0.0,0.0,0.0,0.0,0.0,0.0,0.0,0.0,0.0,0.0,0.0,0.0,0.0,0.0,0.0,0.0,0.0,0.0,0.0,0.0,0.0,0.0,0.0,0.0,0.0,0.0,0.0,0.0,0.0,0.0,0.0,0.0,0.0,0.0,0.0,0.0,0.0,0.0,0.0,0.0,0.0,0.0,0.0,0.0,0.0,0.0,0.0,0.0,0.0,0.0,0.0,0.0,0.0,0.0,0.0,0.0,0.0,0.0,0.0,0.0,0.0,0.0,0.0,0.0,0.0,0.0,0.0,0.0,0.0,0.0,0.0,0.0,0.0,0.0,0.0,0.0,0.0,0.0,0.0,0.0,0.0,0.0,0.0,0.0,0.0,0.0,0.0,0.0,0.0,0.0,0.0,0.0,0.0,0.0,0.0,0.0,0.0,0.0,0.0,0.0,0.0,0.0,0.0,0.0,0.0,0.0,0.0,0.0,0.0,0.0,0.0,0.0,0.0,0.0,0.0,0.0,0.0,0.0,0.0,0.0,0.0,0.0,0.0,0.0,0.0,0.0,0.0,0.0,0.0,0.0,0.0,0.0,0.0,0.0,0.0,0.0,0.0,0.0,0.0,0.0,0.0,0.0,0.0,0.0,0.0,0.0,0.0,0.0,0.0,0.0,0.0,0.0,0.0,0.0,0.0,0.0,0.0,0.0,0.0,0.0,0.0,0.0,0.0,0.0,0.0,0.0,0.0,0.0,0.0,0.0,0.0,0.0,0.0,0.0,0.0,0.0,0.0,0.0,0.0,0.0,0.0,0.0,0.0,0.0,0.0,0.0,0.0,0.0,0.0,0.0,0.0,0.0,0.0,0.0,0.0,0.0,0.0,0.0,0.0,0.0,0.0,0.0,0.0,0.0,0.0,0.0,0.0,0.0,0.0,0.0,0.0,0.0,0.0,0.0,0.0,0.0,0.0,0.0,0.0,0.0,0.0,0.0,0.0,0.0,0.0,0.0,0.0,0.0,0.0,0.0,0.0,0.0,0.0,0.0,0.0,0.0,0.0,0.0,0.0,0.0,0.0,0.0,0.0,0.0,0.0,0.0,0.0,0.0,0.0,0.0,0.0,0.0,0.0,0.0,0.0,0.0,0.0,0.0,0.0,0.0,0.0,0.0,0.0,0.0,0.0,0.0,0.0,0.0,0.0,0.0,0.0,0.0,0.0,0.0,0.0,0.0,0.0,0.0,0.0,0.0,0.0,0.0,0.0,0.0,0.0,0.0,0.0,0.0,0.0,0.0,0.0,0.0,0.0,0.0,0.0,0.0,0.0,0.0,0.0,0.0,0.0,0.0,0.0,0.0,0.0,0.0,0.0,0.0,0.0,0.0,0.0,0.0,0.0,0.0,0.0,0.0,0.0,0.0,0.0,0.0,0.0,0.0,0.0,0.0,0.0,0.0,0.0,0.0,0.0,0.0,0.0,0.0,0.0,0.0,0.0,0.0,0.0,0.0,0.0,0.0,0.0,0.0,0.0,0.0,0.0,0.0,0.0,0.0,0.0,0.0,0.0,0.0,0.0,0.0,0.0,0.0,0.0,0.0,0.0,0.0,0.0,0.0,0.0,0.0,0.0,0.0,0.0,0.0,0.0,0.0,0.0,0.0,0.0,0.0,0.0,0.0,0.0,0.0,0.0,0.0,0.0,0.0,0.0,0.0,0.0,0.0,0.0,0.0,0.0,0.0,0.0,0.0,0.0,0.0,0.0,0.0,0.0,0.0,0.0,0.0,0.0,0.0,0.0,0.0,0.0,0.0,0.0,0.0,0.0,0.0,0.0,0.0,0.0,0.0,0.0,0.0,0.0,0.0,0.0,0.0,0.0,0.0,0.0,0.0,0.0,0.0,0.0,0.0,0.0,0.0,0.0,0.0,0.0,0.0,0.0,0.0,0.0,0.0,0.0,0.0,0.0,0.0,0.0,0.0,0.0,0.0,0.0,0.0,0.0,0.0,0.0,0.0,0.0,0.0,0.0,0.0,0.0,0.0,0.0,0.0,0.0,0.0,0.0,0.0,0.0,0.0,0.0,0.0,0.0,0.0,0.0,0.0,0.0,0.0,0.0,0.0,0.0,0.0,0.0,0.0,0.0,0.0,0.0,0.0,0.0,0.0,0.0,0.0,0.0,0.0,0.0,0.0,0.0,0.0,0.0,0.0,0.0,0.0,0.0,0.0,0.0,0.0,0.0,0.0,0.0,0.0,0.0,0.0,0.0,0.0,0.0,0.0,0.0,0.0,0.0,0.0,0.0,0.0,0.0,0.0,0.0,0.0,0.0,0.0,0.0,0.0,0.0,0.0,0.0,0.0,0.0,0.0,0.0,0.0,0.0,0.0,0.0,0.0,0.0,0.0,0.0,0.0,0.0,0.0,0.0,0.0,0.0,0.0,0.0,0.0,0.0,0.0,0.0,0.0,0.0,0.0,0.0,0.0,0.0,0.0,0.0,0.0,0.0,0.0,0.0,0.0,0.0,0.0,0.0,0.0,0.0,0.0,0.0,0.0,0.0,0.0,0.0,0.0,0.0,0.0,0.0,0.0,0.0,0.0,0.0,0.0,0.0,0.0,0.0,0.0,0.0,0.0,0.0,0.0,0.0,0.0,0.0,0.0,0.0,0.0,0.0,0.0,0.0,0.0,0.0,0.0,0.0,0.0,0.0,0.0,0.0,0.0,0.0,0.0,0.0,0.0,0.0,0.0,0.0,0.0,0.0,0.0,0.0,0.0,0.0,0.0,0.0,0.0,0.0,0.0,0.0,0.0,0.0,0.0,0.0,0.0,0.0,0.0,0.0,0.0,0.0,0.0,0.0,0.0,0.0,0.0,0.0,0.0,0.0,0.0,0.0,0.0,0.0,0.0,0.0,0.0,0.0,0.0,0.0,0.0,0.0,0.0,0.0,0.0,0.0,0.0,0.0,0.0,0.0,0.0,0.0,0.0,0.0,0.0,0.0,0.0,0.0,0.0,0.0,0.0,0.0,0.0,0.0,0.0,0.0,0.0,0.0,0.0,0.0,0.0,0.0,0.0,0.0,0.0,0.0,0.0,0.0,0.0,0.0,0.0,0.0,0.0,0.0,0.0,0.0,0.0,0.0,0.0,0.0,0.0,0.0,0.0,0.0,0.0,0.0,0.0,0.0,0.0,0.0,0.0,0.0,0.0,0.0,0.0,0.0,0.0,0.0,0.0,0.0,0.0,0.0,0.0,0.0,0.0,0.0,0.0,0.0,0.0,0.0,0.0,0.0,0.0,0.0,0.0,0.0,0.0,0.0,0.0,0.0,0.0,0.0,0.0,0.0,0.0,0.0,0.0,0.0,0.0,0.0,0.0,0.0,0.0,0.0,0.0,0.0,0.0,0.0,0.0,0.0,0.0,0.0,0.0,0.0,0.0,0.0,0.0,0.0,0.0,0.0,0.0,0.0,0.0,0.0,0.0,0.0,0.0,0.0,0.0,0.0,0.0,0.0,0.0,0.0,0.0,0.0,0.0,0.0,0.0,0.0,0.0,0.0,0.0,0.0,0.0,0.0,0.0,0.0,0.0,0.0,0.0,0.0,0.0,0.0,0.0,0.0,0.0,0.0,0.0,0.0,0.0,0.0,0.0,0.0,0.0,0.0,0.0,0.0,0.0,0.0,0.0,0.0,0.0,0.0,0.0,0.0,0.0,0.0,0.0,0.0,0.0,0.0,0.0,0.0,0.0,0.0,0.0,0.0,0.0,0.0,0.0,0.0,0.0,0.0,0.0,0.0,0.0,0.0,0.0,0.0,0.0,0.0,0.0,0.0,0.0,0.0,0.0,0.0,0.0,0.0,0.0,0.0,0.0,0.0,0.0,0.0,0.0,0.0,0.0,0.0,0.0,0.0,0.0,0.0,0.0,0.0,0.0,0.0,0.0,0.0,0.0,0.0,0.0,0.0,0.0,0.0,0.0,0.0,0.0,0.0,0.0,0.0,0.0,0.0,0.0,0.0,0.0,0.0,0.0,0.0,0.0,0.0,0.0,0.0,0.0,0.0,0.0,0.0,0.0,0.0,0.0,0.0,0.0,0.0,0.0,0.0,0.0,0.0,0.0,0.0,0.0,0.0,0.0,0.0,0.0,0.0,0.0,0.0,0.0,0.0,0.0,0.0,0.0,0.0,0.0,0.0,0.0,0.0,0.0,0.0,0.0,0.0,0.0,0.0,0.0,0.0,0.0,0.0,0.0,0.0,0.0,0.0,0.0,0.0,0.0,0.0,0.0,0.0,0.0,0.0,0.0,0.0,0.0,0.0,0.0,0.0,0.0,0.0,0.0,0.0,0.0,0.0,0.0,0.0,0.0,0.0,0.0,0.0,0.0,0.0,0.0,0.0,0.0,0.0,0.0,0.0,0.0,0.0,0.0,0.0,0.0,0.0,0.0,0.0,0.0,0.0,0.0,0.0,0.0,0.0,0.0,0.0,0.0,0.0,0.0,0.0,0.0,0.0,0.0,0.0,0.0,0.0,0.0,0.0,0.0,0.0,0.0,0.0,0.0,0.0,0.0,0.0,0.0,0.0,0.0,0.0,0.0,0.0,0.0,0.0,0.0,0.0,0.0,0.0,0.0,0.0,0.0,0.0,0.0,0.0,0.0,0.0,0.0,0.0,0.0,0.0,0.0,0.0,0.0,0.0,0.0,0.0,0.0,0.0,0.0,0.0,0.0,0.0,0.0,0.0,0.0,0.0,0.0,0.0,0.0,0.0,0.0,0.0,0.0,0.0,0.0,0.0,0.0,0.0,0.0,0.0,0.0,0.0,0.0,0.0,0.0,0.0,0.0,0.0,0.0,0.0,0.0,0.0,0.0,0.0,0.0,0.0,0.0,0.0,0.0,0.0,0.0,0.0,0.0,0.0,0.0,0.0,0.0,0.0,0.0,0.0,0.0,0.0,0.0,0.0,0.0,0.0,0.0,0.0,0.0,0.0,0.0,0.0,0.0,0.0,0.0,0.0,0.0,0.0,0.0,0.0,0.0,0.0,0.0,0.0,0.0,0.0,0.0,0.0,0.0,0.0,0.0,0.0,0.0,0.0,0.0,0.0,0.0,0.0,0.0,0.0,0.0,0.0,0.0,0.0,0.0,0.0,0.0,0.0,0.0,0.0,0.0,0.0,0.0,0.0,0.0,0.0,0.0,0.0,0.0,0.0,0.0,0.0,0.0,0.0,0.0,0.0,0.0,0.0,0.0,0.0,0.0,0.0,0.0,0.0,0.0,0.0,0.0,0.0,0.0,0.0,0.0,0.0,0.0,0.0,0.0,0.0,0.0,0.0,0.0,0.0,0.0,0.0,0.0,0.0,0.0,0.0,0.0,0.0,0.0,0.0,0.0,0.0,0.0,0.0,0.0,0.0,0.0,0.0,0.0,0.0,0.0,0.0,0.0,0.0,0.0,0.0,0.0,0.0,0.0,0.0,0.0,0.0,0.0,0.0,0.0,0.0,0.0,0.0,0.0,0.0,0.0207,0.0205,0.0203,0.0,0.0,0.0,0.0,0.0,0.0,0.0,0.0,0.0,0.0,0.0,0.0,0.0,0.0,0.0,0.0,0.0,0.0,0.0,0.0,0.0,0.0,0.0,0.0,0.0,0.0,0.0,0.0,0.0,0.0,0.0,0.0,0.0,0.0,0.0,0.0,0.0,0.0,0.0,0.0,0.0,0.0,0.0,0.0,0.0,0.0,0.0,0.0,0.0,0.0,0.0,0.0,0.0,0.0,0.0,0.0,0.0,0.0,0.0,0.0,0.0,0.0,0.0,0.0,0.0,0.0,0.0,0.0,0.0,0.0,0.0,0.0,0.0,0.0,0.0,0.0,0.0,0.0,0.0,0.0,0.0,0.0,0.0,0.0,0.0,0.0,0.0,0.0,0.0,0.0,0.0,0.0,0.0,0.0,0.0,0.0,0.0,0.0,0.0,0.0,0.0,0.0,0.0,0.0,0.0,0.0,0.0,0.0,0.6425,1.132,1.1397,0.8079,0.5633,0.5633,0.5633,0.5633,0.5633,0.5633,0.5633,0.5633,0.5633,0.4028,0.0202,0.0,0.0,0.0,0.0,0.0,0.0,0.0,0.0,0.0,0.0,0.0,0.0,0.0,0.0,0.0,0.0,0.0,0.0,0.0,0.0,0.0,0.0,0.0,0.0,0.0,0.0,0.0,0.0,0.0,0.0,0.0,0.0,0.0,0.0,0.0,0.0,0.0,0.0,0.0,0.0,0.0,0.0,0.0,0.0,0.0,0.0,0.0,0.0,0.0,0.0,0.0,0.0,0.0,0.0,0.0,0.0,0.0,0.0,0.0,0.0,0.0,0.0,0.0,0.0,0.0,0.0,0.0,0.0,0.0,0.0,0.0,0.0,0.0,0.2827,0.6463,0.6463,0.4841,0.3224,0.3224,0.3224,0.3224,0.3224,0.3224,0.2621,0.0606,0.0,0.0,0.0,0.3433,0.6482,0.6338,0.4739,0.3324,0.3354,0.3369,0.337,0.3352,0.8718,1.3576,1.585,1.3335,1.1282,1.1282,1.1282,1.1282,1.1282,1.1282,1.1282,1.1282,1.1282,0.9673,0.6455,0.2218,0.0,0.0,0.0,0.0,0.0,0.0,0.0,0.0,0.0,0.0,0.0,0.0,0.0,0.0,0.0,0.0,0.0,0.0,0.0,0.0,0.0,0.0,0.0,0.0,0.0,0.0,0.0,0.0,0.0,0.0,0.0,0.0,0.0,0.0,0.0,0.0,0.0,0.0,0.0,0.0,0.0,0.0,0.0,0.0,0.0,0.0,0.0,0.1057,0.1491,0.0,0.1479,0.1262,0.0841,0.1261,0.1471,0.1468,0.103,0.0818,0.0817,0.081,0.0808,0.0808,0.0808,0.0808,0.0808,0.0808,0.0808,0.0808,0.0808,0.0808,0.0809,0.0809,0.7481,1.5447,1.5863,1.2738,0.8647,0.8647,0.8647,0.8647,0.8647,0.8647,0.7443,0.2622,0.1009,0.0808,0.0808,0.8485,1.5467,1.6015,1.2359,0.9105,0.9188,0.9274,0.9326,0.9319,0.8961,1.0457,1.5409,1.6191,1.6191,1.6191,1.6191,1.6191,1.6191,1.6191,1.6191,1.6191,1.6191,1.6191,1.6191,0.664,0.1207,0.0804,0.0807,0.0808,0.0808,0.0808,0.0808,0.0808,0.0808,0.0808,0.0,0.0,0.0,0.0,0.0,0.0,0.0,0.0,0.0,0.0,0.0,0.0,0.0,0.0,0.0,0.0,0.0,0.0,0.0,0.0,0.0,0.0,0.0,0.0,0.0,0.0,0.0,0.0,0.0,0.0,0.0,0.0,0.0,0.0,0.0,0.0,0.0,0.8474,1.2591,0.0,1.2675,1.0483,0.6431,1.0648,1.2714,1.2385,0.8123,0.6254,0.6254,0.6241,0.6235,0.6235,0.6235,0.6235,0.6235,0.6235,0.6235,0.6235,0.6235,0.6469,0.6713,0.6713,0.8137,1.0595,1.4727,1.5271,1.4349,1.4349,1.4349,1.4349,1.4349,1.4349,1.4149,1.2933,0.9472,0.6235,0.6235,0.8052,1.1091,1.5227,1.5132,1.4632,1.5184,1.5112,1.5161,1.4843,1.4572,1.4775,1.5951,1.6123,1.611,1.611,1.611,1.611,1.611,1.611,1.611,1.611,1.611,1.611,1.611,1.3913,1.0681,0.6431,0.6233,0.6235,0.6235,0.6235,0.6235,0.6235,0.6235,0.6235,0.0,0.0,0.0,0.0,0.0,0.0,0.0,0.0,0.0,0.0,0.0,0.0,0.0,0.0,0.0,0.0,0.0,0.0,0.0,0.0,0.0,0.0,0.0,0.0,0.0,0.0,0.0,0.0,0.0,0.0,0.0,0.3789,0.3807,0.3827,0.3896,0.414,0.414,0.9465,1.227,1.2201,1.4849,1.4705,1.1866,1.2159,1.3587,1.5929,1.3156,1.1894,1.1894,1.1894,1.1894,1.1894,1.1894,1.1894,1.1894,1.1894,1.1894,1.1894,1.1894,1.1934,1.2186,1.2191,1.2176,1.2367,1.5252,1.6018,1.6144,1.6144,1.6144,1.6144,1.6144,1.6144,1.6144,1.6144,1.3919,1.1894,1.1894,1.1884,1.2684,1.5551,1.6078,1.6415,1.6769,1.6982,1.6849,1.6619,1.6429,1.6266,1.6123,1.609,1.6083,1.6083,1.6083,1.6083,1.6083,1.6083,1.6083,1.6083,1.6083,1.6083,1.6083,1.6123,1.4719,1.1874,1.1884,1.1894,1.1894,1.1894,1.1894,1.1894,1.1894,1.1894,0.0318,0.0,0.0,0.0,0.0,0.0,0.0,0.1246,0.197,0.0357,0.0,0.0,0.0,0.0,0.0,0.0,0.0,0.0,0.0,0.0,0.0,0.0,0.0,0.0,0.0,0.0,0.0,0.0,0.0,0.0,0.9344,0.9416,0.9464,0.948,0.9636,0.9922,0.9922,0.9592,0.9407,0.9377,1.399,1.6098,1.5978,1.1363,1.1767,1.6191,1.6185,1.6178,1.6178,1.6178,1.6178,1.6178,1.6178,1.6178,1.6178,1.6178,1.6178,1.6178,1.6178,1.6198,1.6218,1.6426,1.6398,1.6164,1.6164,1.6123,1.6083,1.6083,1.6083,1.6083,1.6083,1.6083,1.6083,1.6083,1.613,1.6178,1.6178,1.6151,1.6123,1.6123,1.6225,1.6354,1.6497,1.6734,1.6815,1.6558,1.6503,1.6388,1.6117,1.6083,1.6083,1.6083,1.6083,1.6083,1.6083,1.6083,1.6083,1.6083,1.6083,1.6083,1.6083,1.6083,1.6096,1.6123,1.6164,1.6178,1.6178,1.6178,1.6178,1.6178,1.6178,1.6178,0.1832,0.0,0.0,0.0,0.0,0.0,0.0,0.0,1.004,0.0,0.0,0.0,0.0,0.0,0.0,0.0,0.0,0.0,0.0,0.0,0.0,0.0,0.0,0.0,0.0,0.0,0.0,0.0,0.0,0.0,1.4938,1.4957,1.5026,1.5354,1.5308,1.5384,1.5377,1.5301,1.5233,1.4967,1.581,1.6117,1.6096,1.5299,1.5312,1.6137,1.611,1.6096,1.6096,1.6096,1.6096,1.6096,1.6096,1.6096,1.6096,1.6096,1.6096,1.6096,1.6096,1.6185,1.6293,1.63,1.6293,1.6286,1.6286,1.6191,1.6083,1.6083,1.6083,1.6083,1.6083,1.6083,1.6083,1.6083,1.609,1.6096,1.6096,1.6096,1.609,1.609,1.6205,1.6354,1.6497,1.6558,1.6571,1.653,1.6415,1.6279,1.6103,1.6083,1.6083,1.6083,1.6083,1.6083,1.6083,1.6083,1.6083,1.6083,1.6083,1.6083,1.6083,1.6083,1.6083,1.609,1.6096,1.6096,1.6096,1.6096,1.6096,1.6096,1.6096,1.6096,0.624,0.7313,0.7957,0.8035,0.7956,0.7998,0.8025,1.1287,1.3115,0.8913,0.0,0.0,0.0,0.0,0.0,0.0,0.0,0.0,0.0,0.0,0.0,0.0,0.0,0.0,0.0,0.0,0.0,0.0,0.0,1.6062,1.613,1.6137,1.6164,1.6239,1.6463,1.6537,1.6456,1.6393,1.6312,1.5998,1.6123,1.6083,1.6083,1.6083,1.609,1.6103,1.609,1.6083,1.6083,1.6083,1.6083,1.6083,1.6083,1.6083,1.6083,1.6083,1.6083,1.6083,1.6083,1.6123,1.6185,1.6185,1.6185,1.6185,1.6185,1.6137,1.6083,1.6083,1.6083,1.6083,1.6083,1.6083,1.6083,1.6083,1.6083,1.6083,1.6083,1.6083,1.6083,1.6083,1.6205,1.6354,1.6497,1.6592,1.6653,1.6653,1.6524,1.6374,1.6232,1.6137,1.6083,1.6083,1.6083,1.6083,1.6083,1.6083,1.6083,1.6083,1.6083,1.6083,1.6083,1.6083,1.6083,1.6083,1.6083,1.6083,1.6083,1.6083,1.6083,1.6083,1.6083,1.6083,1.0188,1.3057,1.4273,1.4347,1.4359,1.4278,1.4326,0.0,1.4373,0.0,0.0,0.0,0.0,0.0,0.0,0.0,0.0,0.0,0.0,0.0,0.0,0.0,0.0,0.0,0.0,0.0,0.0,0.0,0.0,1.6083,1.6083,1.6083,1.6096,1.6137,1.6388,1.6456,1.6313,1.6374,1.63,1.6083,1.6083,1.6083,1.6083,1.6083,1.6083,1.6083,1.6083,1.6083,1.6083,1.6083,1.6083,1.6083,1.6083,1.6083,1.6083,1.6083,1.6083,1.6083,1.6083,1.6083,1.6083,1.6083,1.6083,1.6083,1.6083,1.6083,1.6083,1.6083,1.6083,1.6083,1.6083,1.6083,1.6083,1.6083,1.6083,1.6083,1.6083,1.6083,1.6083,1.6083,1.6171,1.6307,1.649,1.6619,1.6693,1.6693,1.6592,1.6456,1.6273,1.6151,1.6083,1.6083,1.6083,1.6083,1.6083,1.6083,1.6083,1.6083,1.6083,1.6083,1.6083,1.6083,1.6083,1.6083,1.6083,1.6083,1.6083,1.6083,1.6083,1.6083,1.6083,1.6083,1.2148,1.3282,1.4281,1.4379,1.4222,1.4305,1.4238,0.0,0.0,0.0,0.0,0.0,0.0,0.0,0.0,0.0,0.0,0.0,0.0,0.0,0.0,0.0,0.0,0.0,0.0,0.0,0.0,0.0,0.0,1.6083,1.6083,1.6083,1.6151,1.6293,1.6442,1.6456,1.6313,1.6171,1.6096,1.6083,1.6083,1.6083,1.6083,1.6083,1.6083,1.6083,1.6083,1.6083,1.6083,1.6083,1.6083,1.6083,1.6083,1.6083,1.6083,1.6083,1.6083,1.6083,1.6083,1.6083,1.6083,1.6083,1.6083,1.6083,1.6083,1.6083,1.6083,1.6083,1.6083,1.6083,1.6083,1.6083,1.6083,1.6083,1.6083,1.6083,1.6083,1.6083,1.6083,1.6083,1.609,1.6185,1.6469,1.653,1.653,1.653,1.6524,1.6415,1.613,1.609,1.6083,1.6083,1.6083,1.6083,1.6083,1.6083,1.6083,1.6083,1.6083,1.6083,1.6083,1.6083,1.6083,1.6083,1.6083,1.6083,1.6083,1.6083,1.6083,1.6083,1.6083,1.6083,1.2291,1.2813,1.315,1.3105,1.3702,1.4228,1.434,1.4231,1.4269,0.0,0.0,0.0,0.0,0.0,0.0,0.0,0.0,0.0,0.0,0.0,0.0,0.0,0.0,0.0,0.0,0.0,0.0,0.0,0.0,0.0,1.6083,1.6083,1.6151,1.6307,1.6361,1.6361,1.6307,1.6157,1.6083,1.6083,1.6083,1.6083,1.6083,1.6083,1.6083,1.6083,1.6083,1.6083,1.6083,1.6083,1.6083,1.6083,1.6083,1.6083,1.6083,1.6083,1.6083,1.6083,1.6083,1.6083,1.6083,1.6083,1.6083,1.6083,1.6083,1.6083,1.6083,1.6083,1.6083,1.6083,1.6083,1.6083,1.6083,1.6083,1.6083,1.6083,1.6083,1.6083,1.6083,1.6083,1.6083,1.6178,1.6469,1.6524,1.6558,1.6653,1.6585,1.6449,1.6252,1.6144,1.6083,1.6083,1.6083,1.6083,1.6083,1.6083,1.6083,1.6083,1.6083,1.6083,1.6083,1.6083,1.6083,1.6083,1.6083,1.6083,1.6083,1.6083,1.6083,1.6083,1.6083,1.6083,1.242,1.2494,1.2562,1.2559,1.3091,1.3796,1.4277,1.4366,1.4421,0.0,0.0,0.0,0.0,0.0,0.0,0.0,0.0,0.0,0.0,0.0,0.0,0.0,0.0,0.0,0.0,0.0,0.0,0.0,0.0,0.0,1.6083,1.6083,1.6151,1.6307,1.6259,1.6259,1.6307,1.6157,1.6083,1.6083,1.6083,1.6083,1.6083,1.6083,1.6083,1.6083,1.6083,1.6083,1.6083,1.6083,1.6083,1.6083,1.6083,1.6083,1.6083,1.6083,1.6083,1.6083,1.6083,1.6083,1.6083,1.6083,1.6083,1.6083,1.6083,1.6083,1.6083,1.6083,1.6083,1.6083,1.6083,1.6083,1.6083,1.6083,1.6083,1.6083,1.6083,1.6083,1.6083,1.6083,1.6083,1.6178,1.6469,1.6524,1.6558,1.6659,1.6585,1.6449,1.6259,1.6144,1.6083,1.6083,1.6083,1.6083,1.6083,1.6083,1.6083,1.6083,1.6083,1.6083,1.6083,1.6083,1.6083,1.6083,1.6083,1.6083,1.6083,1.6083,1.6083,1.6083,1.6083,1.6083,0.0,0.0,0.0,1.254,1.2553,1.2853,1.4061,0.0,1.4414,0.0,0.0,0.0,0.0,0.0,0.0,0.0,0.0,0.0,0.0,0.0,0.0,0.0,0.0,0.0,0.0,0.0,0.0,0.0,0.0,1.6083,1.6083,1.6083,1.6151,1.63,1.6164,1.6157,1.63,1.6157,1.6083,1.6083,1.6083,1.6083,1.6083,1.6083,1.6083,1.6083,1.6083,1.6083,1.6083,1.6083,1.6083,1.6083,1.6083,1.6083,1.6083,1.6083,1.6083,1.6083,1.6083,1.6083,1.6083,1.6083,1.6083,1.6083,1.6083,1.6083,1.6083,1.6083,1.6083,1.6083,1.6083,1.6083,1.6083,1.6083,1.6083,1.6083,1.6083,1.6083,1.6083,1.6083,1.6083,1.6171,1.6463,1.6517,1.6517,1.6517,1.6517,1.6408,1.6117,1.6083,1.6083,1.6083,1.6083,1.6083,1.6083,1.6083,1.6083,1.6083,1.6083,1.6083,1.6083,1.6083,1.6083,1.6083,1.6083,1.6083,1.6083,1.6083,1.6083,1.6083,1.6083,1.6083,1.2354,0.0,0.0,0.0,0.0,0.0,0.0,0.0,0.0,0.0,0.0,0.0,0.0,0.0,0.0,0.0,0.0,0.0,0.0,0.0,0.0,0.0,0.0,0.0,0.0,0.0,0.0,0.0,1.6083,1.6083,1.6083,1.6185,1.6218,1.6144,1.6212,1.6212,1.6144,1.6103,1.6083,1.6083,1.6083,1.6083,1.6083,1.6083,1.6083,1.6083,1.6083,1.6083,1.6083,1.6083,1.6083,1.6083,1.6083,1.6083,1.6083,1.6083,1.6083,1.6083,1.6083,1.6083,1.6083,1.6083,1.6083,1.6083,1.6083,1.6083,1.6083,1.6083,1.6083,1.6083,1.6083,1.6083,1.6083,1.6083,1.6083,1.6083,1.6083,1.6083,1.6083,1.6083,1.6083,1.6144,1.6334,1.6368,1.6368,1.6368,1.6368,1.63,1.6103,1.6083,1.6083,1.6083,1.6083,1.6083,1.6083,1.6083,1.6083,1.6083,1.6083,1.6083,1.6083,1.6083,1.6083,1.6083,1.6083,1.6083,1.6083,1.6083,1.6083,1.6083,1.6083,1.6083,1.2271,1.2553,1.2515,0.0,0.0,0.0,0.0,0.0,0.0,0.0,0.0,0.0,0.0,0.0,0.0,0.0,0.0,0.0,0.0,0.0,0.0,0.0,0.0,0.0,0.0,0.0,0.0,1.6083,1.6083,1.6083,1.6083,1.6164,1.6171,1.6083,1.6171,1.6171,1.6083,1.6083,1.6083,1.6083,1.6083,1.6083,1.6083,1.6083,1.6083,1.6083,1.6083,1.6083,1.6083,1.6083,1.6083,1.6083,1.6083,1.6083,1.6083,1.6083,1.6083,1.6083,1.6083,1.6083,1.6083,1.6083,1.6083,1.6083,1.6083,1.6083,1.6083,1.6083,1.6083,1.6083,1.6083,1.6083,1.6083,1.6083,1.6083,1.6083,1.6083,1.6083,1.6083,1.6083,1.6083,1.613,1.6286,1.6307,1.6307,1.6307,1.6307,1.6252,1.6103,1.6083,1.6083,1.6083,1.6083,1.6083,1.6083,1.6083,1.6083,1.6083,1.6083,1.6083,1.6083,1.6083,1.6083,1.6083,1.6083,1.6083,1.6083,1.6083,1.6083,1.6083,1.6083,1.6083,1.2305,1.2553,1.2535,0.0,0.0,0.0,0.0,0.0,0.0,0.0,0.0,0.0,0.0,0.0,0.0,0.0,0.0,0.0,0.0,0.0,0.0,0.0,0.0,0.0,0.0,1.6083,1.6083,1.6083,1.6083,1.6083,1.6083,1.6083,1.6083,1.6083,1.6083,1.6083,1.6083,1.6083,1.6083,1.6083,1.6083,1.6083,1.6083,1.6083,1.6083,1.6083,1.6083,1.6083,1.6083,1.6083,1.6083,1.6083,1.6083,1.6083,1.6083,1.6083,1.6083,1.6083,1.6083,1.6083,1.6083,1.6083,1.6083,1.6083,1.6083,1.6083,1.6083,1.6083,1.6083,1.6083,1.6083,1.6083,1.6083,1.6083,1.6083,1.6083,1.6083,1.6083,1.6083,1.6083,1.6083,1.6123,1.6259,1.6286,1.6286,1.6286,1.6286,1.6239,1.6096,1.6083,1.6083,1.6083,1.6083,1.6083,1.6083,1.6083,1.6083,1.6083,1.6083,1.6083,1.6083,1.6083,1.6083,1.6083,1.6083,1.6083,1.6083,1.6083,1.6083,1.6083,1.6083,1.6083,0.0,0.0,0.0,0.0,0.0,0.0,0.0,0.0,0.0,0.0,0.0,0.0,0.0,0.0,0.0,0.0,0.0,0.0,0.0,0.0,0.0,0.0,0.0,0.0,0.0,1.6083,1.6083,1.6083,1.6083,1.6083,1.6083,1.6083,1.6083,1.6083,1.6083,1.6083,1.6083,1.6083,1.6083,1.6083,1.6083,1.6083,1.6083,1.6083,1.6083,1.6083,1.6083,1.6083,1.6083,1.6083,1.6083,1.6083,1.6083,1.6083,1.6083,1.6083,1.6083,1.6083,1.6083,1.6083,1.6083,1.6083,1.6083,1.6083,1.6083,1.6083,1.6083,1.6083,1.6083,1.6083,1.6083,1.6083,1.6083,1.6083,1.6083,1.6083,1.6083,1.6083,1.6083,1.6083,1.6083,1.609,1.6123,1.6123,1.6123,1.6123,1.6123,1.6117,1.6083,1.6083,1.6083,1.6083,1.6083,1.6083,1.6083,1.6083,1.6083,1.6083,1.6083,1.6083,1.6083,1.6083,1.6083,1.6083,1.6083,1.6083,1.6083,1.6083,1.6083,1.6083,1.6083,1.6083,0.0,0.0,0.0,1.2501,0.0,0.0,0.0,0.0,0.0,0.0,0.0,0.0,0.0,0.0,0.0,0.0,0.0,0.0,0.0,0.0,0.0,0.0,0.0,0.0,0.0,1.6083,1.6083,1.6083,1.6083,1.6083,1.6083,1.6083,1.6083,1.6083,1.6083,1.6083,1.6083,1.6083,1.6083,1.6083,1.6083,1.6083,1.6083,1.6083,1.6083,1.6083,1.6083,1.6083,1.6083,1.6083,1.6083,1.6083,1.6083,1.6083,1.6083,1.6083,1.6083,1.6083,1.6083,1.6083,1.6083,1.6083,1.6083,1.6083,1.6083,1.6083,1.6083,1.6083,1.6083,1.6083,1.6083,1.6083,1.6083,1.6083,1.6083,1.6083,1.6083,1.6083,1.6083,1.6083,1.6083,1.6083,1.6083,1.6083,1.6083,1.6083,1.6083,1.6083,1.6083,1.6083,1.6083,1.6083,1.6083,1.6083,1.6083,1.6083,1.6083,1.6083,1.6083,1.6083,1.6083,1.6083,1.6083,1.6083,1.6083,1.6083,1.6083,1.6083,1.6083,1.6083,1.6083,1.6083,0.0,0.0,0.0,0.0,0.0,1.2467,0.0,0.0,0.0,0.0,0.0,0.0,0.0,0.0,0.0,0.0,0.0,0.0,0.0,0.0,0.0,0.0,0.0,0.0,0.0,1.6199,1.6035,1.6117,1.6022,1.6192,1.6076,1.6083,1.6083,1.6083,1.6083,1.6083,1.6083,1.6083,1.6083,1.6083,1.6083,1.6083,1.6083,1.6083,1.6083,1.6083,1.6083,1.6083,1.6083,1.6083,1.6083,1.6083,1.6083,1.6083,1.6083,1.6083,1.6083,1.6083,1.6083,1.6083,1.6083,1.6083,1.6083,1.6083,1.6083,1.6083,1.6083,1.6083,1.6083,1.6083,1.6083,1.6083,1.6083,1.6083,1.6083,1.6083,1.6083,1.6083,1.6083,1.6083,1.6083,1.6083,1.6083,1.6083,1.6083,1.6083,1.6083,1.6083,1.6083,1.6083,1.6083,1.6083,1.6083,1.6083,1.6083,1.6083,1.6083,1.6083,1.6083,1.6083,1.6083,1.6083,1.6083,1.6083,1.6083,1.6083,1.6083,1.6083,1.6083,1.6083,1.6083,1.6083,0.0,0.0,0.0,0.0,1.2501,0.0,0.0,0.0,0.0,0.0,0.0,0.0,0.0,0.0,0.0,0.0,0.0,0.0,0.0,0.0,0.0,0.0,0.0,0.0,0.0,0.0,1.6062,1.6051,1.6189,1.6064,1.6062,1.6083,1.6083,1.6083,1.6083,1.6083,1.6083,1.6083,1.6083,1.6083,1.6083,1.6083,1.6083,1.6083,1.6083,1.6083,1.6083,1.6083,1.6083,1.6083,1.6083,1.6083,1.6083,1.6083,1.6083,1.6083,1.6083,1.6083,1.6083,1.6083,1.6083,1.6083,1.6083,1.6083,1.6083,1.6083,1.6083,1.6083,1.6083,1.6083,1.6083,1.6083,1.6083,1.6083,1.6083,1.6083,1.6083,1.6083,1.6083,1.6083,1.6083,1.6083,1.6083,1.6083,1.6083,1.6083,1.6083,1.6083,1.6083,1.6083,1.6083,1.6083,1.6083,1.6083,1.6083,1.6083,1.6083,1.6083,1.6083,1.6083,1.6083,1.6083,1.6083,1.6083,1.6083,1.6083,1.6083,1.6083,1.6083,1.6083,1.6083,1.6083,0.0,0.0,0.0,0.0,0.0,0.0,0.0,0.0,1.2501,0.0,0.0,0.0,0.0,0.0,0.0,0.0,0.0,0.0,0.0,0.0,0.0,0.0,0.0,0.0,0.0,0.0,0.0,0.0,0.0,1.605,1.6185,1.613,1.6083,1.6083,1.6083,1.6083,1.6083,1.6083,1.6083,1.6083,1.6083,1.6083,1.6083,1.6083,1.6083,1.6083,1.6083,1.613,1.6212,1.6212,1.6212,1.6225,1.6307,1.6232,1.6083,1.6083,1.6083,1.6083,1.6083,1.6083,1.6083,1.6083,1.6083,1.6083,1.6083,1.6083,1.6083,1.6083,1.6083,1.6083,1.6083,1.6083,1.6083,1.6083,1.6083,1.6083,1.6083,1.6083,1.6083,1.6083,1.6083,1.6083,1.6083,1.6083,1.6083,1.6083,1.6083,1.6083,1.6083,1.6083,1.6083,1.6083,1.6083,1.6083,1.6083,1.6083,1.6083,1.6083,1.6083,1.6083,1.6083,1.6083,1.6083,1.6083,1.6083,1.6083,1.6083,1.6083,1.6083,1.6083,1.6083,1.6083,1.2435,0.0,0.0,0.0,0.0,0.0,0.0,0.0,0.0,0.0,0.0,0.0,0.0,0.0,0.0,0.0,0.0,0.0,0.0,0.0,0.0,0.0,0.0,0.0,0.0,0.0,0.0,0.0,0.0,0.0,1.6327,1.6225,1.6144,1.6144,1.6103,1.6083,1.6083,1.6083,1.6083,1.6083,1.6083,1.6083,1.6083,1.6083,1.6103,1.6144,1.6144,1.6232,1.6368,1.6368,1.6368,1.6381,1.6483,1.6388,1.6198,1.6157,1.6117,1.6083,1.6083,1.6083,1.6083,1.6083,1.6083,1.6083,1.6083,1.6083,1.6083,1.6083,1.6083,1.6083,1.6083,1.6083,1.6083,1.6083,1.6083,1.6083,1.6083,1.6083,1.6083,1.6083,1.6083,1.6083,1.6083,1.6083,1.6083,1.6083,1.6083,1.6083,1.6083,1.6083,1.6083,1.6083,1.6083,1.6083,1.6083,1.6083,1.6083,1.6083,1.6083,1.6083,1.6083,1.6083,1.6083,1.6083,1.6083,1.6083,1.6083,1.6083,1.6083,1.6083,1.6083,1.6083,0.0,0.0,0.0,1.5417,0.0,0.0,0.0,0.0,1.2521,0.0,0.0,0.0,0.0,0.0,0.0,0.0,0.0,0.0,0.0,0.0,0.0,0.0,0.0,0.0,0.0,0.0,0.0,0.0,0.0,0.0,1.6884,1.6381,1.6098,1.6098,1.6157,1.6083,1.6083,1.6083,1.6083,1.6083,1.6083,1.6083,1.6083,1.6083,1.6164,1.63,1.63,1.6381,1.6517,1.6517,1.6517,1.6517,1.6517,1.6517,1.649,1.6354,1.6205,1.6083,1.6083,1.6083,1.6083,1.6083,1.6083,1.6083,1.6083,1.6083,1.6083,1.6083,1.6083,1.6083,1.6083,1.6083,1.6083,1.6083,1.6083,1.6083,1.6083,1.6083,1.6083,1.6083,1.6083,1.6083,1.6083,1.6083,1.6083,1.6083,1.6083,1.6083,1.6083,1.6083,1.6083,1.6083,1.6083,1.6083,1.6083,1.6083,1.6083,1.6083,1.6083,1.6083,1.6083,1.6083,1.6083,1.6083,1.6083,1.6083,1.6083,1.6083,1.6083,1.6083,1.6083,1.6083,0.0,0.0,1.2698,1.3514,0.0,0.0,0.0,0.0,0.0,0.0,0.0,0.0,0.0,0.0,0.0,0.0,0.0,0.0,0.0,0.0,0.0,0.0,0.0,0.0,0.0,0.0,0.0,0.0,0.0,0.0,0.0,1.6863,1.6522,1.6313,1.6157,1.6083,1.6083,1.6083,1.6083,1.6083,1.6083,1.6083,1.6083,1.6185,1.6259,1.6313,1.6408,1.6537,1.6673,1.6673,1.6673,1.668,1.6788,1.67,1.6503,1.6361,1.6279,1.6218,1.6117,1.6083,1.6083,1.6083,1.6083,1.6083,1.6083,1.6083,1.6083,1.6083,1.6083,1.6083,1.6083,1.6083,1.6083,1.6083,1.6083,1.6083,1.6083,1.6083,1.6083,1.6083,1.6164,1.6232,1.6232,1.6313,1.6307,1.611,1.6083,1.6083,1.6083,1.6083,1.6083,1.6083,1.6083,1.6083,1.6083,1.6083,1.6083,1.6083,1.6083,1.6083,1.6083,1.6083,1.6083,1.6083,1.6083,1.6083,1.6083,1.6083,1.6083,1.6083,1.6083,1.6083,1.6074,1.5011,0.0,1.37,1.3733,0.0,1.2794,0.0,0.0,0.0,0.0,0.0,0.0,0.0,0.0,0.0,0.0,0.0,0.0,0.0,0.0,0.0,0.0,0.0,0.0,0.0,0.0,0.0,0.0,0.0,0.0,0.0,1.68,1.6388,1.6185,1.6083,1.6083,1.6083,1.6083,1.6083,1.6137,1.6164,1.6171,1.632,1.6415,1.6469,1.6564,1.6693,1.6829,1.6829,1.6829,1.6842,1.6944,1.6856,1.6659,1.6463,1.632,1.6218,1.6117,1.6083,1.6083,1.6083,1.6083,1.609,1.6144,1.6164,1.6164,1.6164,1.6164,1.6151,1.6096,1.6083,1.6083,1.6083,1.6083,1.6083,1.6083,1.6083,1.6096,1.6151,1.6246,1.6327,1.6374,1.6463,1.6456,1.6266,1.6198,1.6164,1.6164,1.6117,1.6083,1.6083,1.6083,1.6083,1.6083,1.6083,1.6083,1.6083,1.6083,1.6083,1.6083,1.6083,1.611,1.6164,1.611,1.611,1.6164,1.611,1.6083,1.6083,1.6083,1.6083]}]]